GFSSE_sfc_wetblb_000.txt.gz
Wetbulb
69.33 69.31 73.82 73.33 72.85 71.83 71.26 70.86 70.85 70.58 69.80 68.62 67.04 66.30 66.01 65.76 65.42 65.47 66.14 67.29 67.99 68.27 68.42 68.43 68.41 69.33 69.33 70.59 72.35 73.31 74.21 75.28 75.23 75.30 74.97 76.21 75.63 75.56 75.49 75.87 76.11 75.64 75.37
68.57 69.54 72.78 74.14 73.19 72.03 71.64 71.42 71.49 71.44 70.71 68.64 67.42 66.83 66.30 65.95 65.63 65.71 66.40 66.95 67.68 68.21 68.87 68.57 68.50 68.85 69.52 69.98 71.82 73.02 73.78 73.94 74.12 75.08 75.04 75.06 74.86 74.98 75.24 75.74 75.81 75.34 75.57
66.59 69.54 70.93 74.12 73.53 72.73 72.61 72.69 72.39 72.35 71.30 69.10 67.74 67.34 66.72 66.14 65.85 65.79 66.16 66.94 67.71 67.94 68.45 68.96 68.41 68.71 69.49 69.77 71.12 72.27 73.33 73.46 73.62 74.33 74.09 73.82 74.89 74.68 74.69 75.18 75.20 74.96 75.29
66.07 68.97 68.90 73.98 74.09 73.86 73.47 72.92 72.31 72.08 71.28 69.86 68.47 67.99 67.48 66.82 66.24 66.13 66.44 66.93 67.34 67.85 68.29 68.70 68.73 68.90 69.49 69.68 70.47 71.48 72.83 73.00 72.53 73.00 74.12 74.24 73.61 74.27 74.43 75.02 74.83 74.54 74.39
65.62 66.18 67.92 72.53 74.36 74.14 73.49 72.18 71.81 71.51 70.49 69.81 69.09 68.68 68.32 67.79 67.07 66.60 66.47 66.86 67.23 67.50 68.01 68.51 69.04 68.90 69.04 69.76 70.07 71.03 72.55 72.78 72.60 72.31 73.70 72.75 71.97 72.65 72.70 74.02 74.39 74.17 74.44
63.11 63.89 67.27 68.39 70.81 72.68 72.85 72.39 72.35 70.84 70.01 69.16 68.59 68.61 67.97 68.08 67.55 67.12 66.47 66.62 66.47 66.93 67.41 68.08 68.22 68.90 69.71 69.71 70.08 70.39 72.18 72.18 72.50 72.47 71.80 72.27 71.99 73.14 72.30 70.99 73.27 73.89 74.34
62.83 64.42 65.60 69.03 70.28 71.48 71.66 71.15 70.74 70.21 69.84 68.76 68.03 67.89 68.09 68.25 67.44 67.03 66.84 66.55 66.40 66.28 66.30 66.87 68.12 68.45 68.95 70.45 70.68 70.50 71.49 71.98 72.25 73.65 71.55 71.23 70.52 70.94 71.46 71.71 73.65 73.64 73.74
63.59 66.32 66.81 68.71 69.75 68.84 69.87 69.04 67.78 67.07 66.81 66.57 66.50 66.49 66.63 66.61 66.85 66.83 66.75 66.67 66.42 66.13 65.90 66.08 67.16 68.25 68.32 69.67 70.59 70.63 71.10 71.47 73.06 72.75 70.88 71.09 70.38 70.57 71.49 71.91 72.18 72.98 73.64
63.85 63.20 64.27 65.04 65.52 64.82 63.30 63.27 64.05 64.36 64.65 65.04 65.06 65.19 65.58 65.75 66.15 66.51 66.47 66.70 66.22 65.99 66.12 65.68 66.33 67.89 67.97 68.39 69.65 70.28 71.43 72.12 73.04 73.41 70.93 70.96 71.37 71.68 72.07 72.55 72.16 73.34 73.05
61.55 61.61 62.99 64.26 63.81 65.03 65.23 63.24 63.48 63.89 63.82 63.82 64.11 64.23 64.91 65.04 65.35 65.97 65.87 65.89 65.98 65.76 65.90 65.58 65.70 67.22 67.72 67.99 69.31 70.01 70.99 71.77 72.53 72.95 69.51 69.09 70.67 71.66 72.11 71.80 71.73 73.31 73.17
60.98 61.39 63.12 63.35 64.41 64.91 64.67 64.13 63.77 63.72 63.22 62.94 63.00 62.98 63.36 64.64 65.05 66.00 65.55 65.51 65.48 65.31 65.64 65.53 65.77 66.97 67.54 67.58 68.45 68.81 70.70 71.93 72.49 72.55 70.28 70.37 70.96 72.02 71.51 70.87 71.10 72.65 72.77
59.59 60.84 61.56 63.76 64.47 64.23 63.75 65.26 65.52 64.60 62.54 61.74 62.10 61.89 62.96 63.72 64.91 64.27 64.19 64.36 65.26 65.34 65.50 65.52 65.85 66.95 67.46 68.45 68.38 68.91 69.39 71.20 72.20 72.26 71.83 69.12 70.52 72.04 71.34 70.60 70.34 70.97 71.78
60.48 60.48 60.83 63.72 64.35 64.25 64.47 64.61 64.33 63.06 62.89 62.46 62.60 63.95 62.47 63.17 64.89 64.83 63.92 64.13 65.29 65.05 65.67 66.11 66.04 67.04 67.78 68.32 68.29 67.63 67.42 71.86 72.12 72.23 71.83 71.12 71.04 70.33 69.70 69.77 68.89 69.94 71.93
59.49 60.34 62.84 64.02 64.39 65.08 64.88 64.37 63.33 62.82 62.92 62.42 63.67 62.81 63.82 63.43 64.05 63.78 63.82 63.03 64.79 65.55 65.60 66.57 65.71 67.25 68.08 68.66 68.51 67.82 68.03 70.85 72.58 72.68 72.18 71.23 70.66 71.28 70.55 70.61 70.05 71.45 71.26
59.34 62.94 63.84 64.27 65.02 65.21 64.93 64.45 63.89 63.62 63.91 64.04 63.85 63.72 64.37 63.66 62.84 62.82 62.72 63.06 63.93 64.85 65.36 66.08 66.06 66.95 67.99 68.08 68.21 67.96 68.53 70.81 72.35 72.55 72.42 70.54 70.23 69.56 70.26 70.56 70.63 70.92 71.49
60.01 63.27 63.51 64.27 65.36 65.38 65.11 64.98 64.46 64.65 64.67 64.19 63.51 63.57 64.55 63.70 63.70 64.08 62.72 62.90 64.61 65.04 64.81 65.92 65.99 66.64 67.40 67.87 67.70 68.15 69.29 70.29 71.32 71.63 72.68 70.19 68.92 68.07 69.95 70.56 70.85 71.74 71.66
61.91 63.29 63.09 63.79 64.81 65.60 65.75 65.55 65.21 65.10 64.56 64.25 63.96 64.77 64.77 65.20 64.93 64.04 63.08 61.83 63.39 65.72 66.11 66.16 66.55 67.38 66.86 67.39 67.51 67.56 69.33 70.39 71.05 71.36 72.14 70.14 69.62 69.41 69.00 68.43 71.76 71.99 72.13
62.67 61.42 63.27 63.96 65.12 65.63 65.84 65.85 65.65 65.75 65.63 65.36 65.36 65.23 65.33 65.45 65.39 65.20 65.31 65.11 66.22 66.16 66.05 65.42 65.63 65.40 65.64 66.09 66.34 66.36 69.32 70.31 70.88 70.71 72.15 71.17 68.94 68.43 68.86 70.08 71.19 72.13 72.11
61.24 61.45 62.77 64.11 64.44 65.34 65.70 65.77 66.17 66.43 65.67 66.12 65.55 65.02 65.20 65.40 65.67 66.09 66.17 66.15 66.51 65.53 65.99 65.93 64.76 65.43 65.05 65.44 65.82 66.33 69.75 70.02 70.57 70.27 67.96 70.23 68.83 68.18 67.98 69.43 70.47 71.08 71.39
60.86 61.96 62.95 64.33 64.94 65.09 65.82 66.02 66.16 66.83 66.62 66.20 63.60 61.79 63.98 65.61 65.31 66.28 66.41 66.30 66.32 64.93 65.67 65.97 65.89 65.73 65.65 65.91 65.16 66.30 68.89 70.02 70.02 68.11 68.43 67.99 68.89 68.91 68.01 67.62 68.87 71.87 70.71
60.39 61.39 63.44 62.97 64.60 63.49 64.31 64.36 64.54 63.74 62.91 65.54 63.96 62.26 61.63 64.60 64.91 65.30 65.40 65.24 65.32 64.91 65.48 66.30 66.12 65.60 65.40 66.93 65.61 64.90 66.91 68.63 68.45 68.52 69.32 68.18 67.45 66.98 66.96 66.98 67.42 70.88 69.00
58.96 60.25 63.09 62.84 63.34 63.10 64.28 65.47 65.19 64.82 64.67 61.73 62.08 62.37 62.91 62.88 65.05 65.21 65.75 65.01 65.45 64.22 65.34 65.89 66.22 64.72 66.23 67.46 63.21 62.49 59.16 61.40 65.83 66.53 68.41 66.56 66.31 66.26 65.75 66.48 67.12 67.07 67.16
59.97 60.69 61.58 62.53 63.39 63.99 65.99 65.63 66.56 66.47 65.52 65.49 62.86 64.00 63.41 63.21 64.40 65.08 65.01 64.97 65.15 65.07 64.43 66.13 66.85 66.03 64.00 66.61 65.22 62.47 58.46 56.99 59.98 65.38 64.27 64.52 65.22 64.83 65.61 66.02 66.67 68.02 67.41
60.41 61.78 61.23 62.56 63.79 64.32 66.29 64.96 64.81 64.27 62.58 63.80 65.68 65.20 63.82 64.77 63.01 64.39 65.31 65.43 65.71 65.10 66.77 67.65 68.68 67.06 66.84 64.05 65.71 64.04 66.18 64.05 57.83 56.13 61.56 63.54 64.65 64.47 65.01 66.19 66.19 66.24 66.56
61.17 61.82 63.89 63.51 63.63 65.34 66.05 64.99 63.72 63.95 66.10 66.33 66.73 64.68 65.35 65.67 65.29 64.83 64.88 65.57 66.08 67.17 66.97 66.91 67.24 67.32 66.71 63.43 63.91 63.35 64.95 62.86 62.33 59.03 56.55 58.08 60.14 62.94 65.41 65.42 66.44 66.01 67.36
61.39 61.59 62.75 62.85 62.87 64.28 65.63 65.42 64.37 63.06 63.28 63.80 64.02 63.88 63.14 65.57 66.19 65.06 64.13 64.29 66.50 66.88 67.12 68.14 67.70 67.92 67.69 67.14 66.06 66.51 62.28 62.25 60.68 60.19 58.65 58.60 57.71 58.18 63.28 64.88 65.14 66.35 68.73

GFSSE_sfc_wetblb_003.txt.gz
Wetbulb
68.23 72.73 74.10 73.72 73.00 71.80 71.46 71.12 70.65 70.33 70.29 69.68 68.58 67.24 66.95 66.65 66.36 65.84 65.69 66.01 66.86 68.19 68.76 69.15 69.24 69.31 70.14 69.83 70.77 72.94 73.74 74.24 74.56 74.91 74.37 74.17 75.73 75.93 76.01 76.21 76.13 75.12 75.60
66.24 71.75 73.86 73.86 72.78 71.92 71.62 71.37 71.76 71.58 71.67 70.47 69.05 67.78 67.32 67.02 66.71 66.14 66.04 66.33 66.65 67.59 68.18 69.38 69.09 69.31 69.75 70.45 70.24 72.62 73.48 74.42 74.45 75.20 74.83 74.66 75.20 75.07 75.09 75.94 75.96 75.19 75.50
65.87 69.70 72.13 73.89 72.94 72.65 72.90 72.76 72.89 72.80 72.05 70.94 69.84 68.28 67.82 67.41 66.99 66.65 66.49 66.46 66.73 67.37 67.99 68.71 69.56 69.31 69.42 70.39 70.26 72.06 73.16 73.39 73.65 74.49 74.51 74.22 74.34 74.41 74.28 74.51 75.16 75.27 75.27
66.51 69.02 69.63 73.77 73.97 73.74 73.74 73.55 73.35 72.53 72.05 71.07 70.24 68.89 68.39 67.96 67.62 67.25 67.09 66.90 66.77 67.37 67.80 68.31 68.93 69.47 69.45 70.22 70.74 71.16 72.43 72.86 72.55 73.59 73.45 73.79 74.75 74.73 74.24 75.31 75.27 75.12 74.60
66.61 68.17 69.87 74.42 74.42 74.17 73.82 73.70 73.45 72.28 71.51 70.26 69.22 69.27 69.28 68.79 68.39 68.04 67.60 67.18 67.16 67.07 67.77 68.15 68.87 69.39 69.56 69.69 70.84 70.95 71.89 72.38 72.39 72.75 73.15 73.82 73.22 73.77 74.32 74.95 75.37 74.77 74.52
64.25 65.05 70.47 71.80 71.79 72.37 73.37 73.12 72.71 71.96 70.68 69.83 68.46 69.00 69.38 68.75 68.47 68.03 67.94 67.64 67.30 66.95 67.36 67.83 68.70 68.99 69.57 70.38 70.45 70.87 71.51 72.01 72.43 72.32 72.66 73.43 73.45 73.59 74.05 74.77 74.43 73.95 73.51
63.76 64.53 65.95 70.41 69.51 70.27 71.24 71.62 71.76 70.87 70.43 69.29 68.65 68.44 68.31 67.97 67.95 67.66 67.91 67.59 67.45 67.23 66.61 66.72 67.57 68.61 68.84 69.41 70.16 70.97 70.93 72.19 72.17 72.93 72.53 71.91 73.40 72.99 72.74 71.85 71.70 72.43 73.11
64.10 65.70 66.48 69.53 69.69 69.95 68.86 68.09 67.44 67.05 66.81 66.84 66.76 66.91 66.86 66.69 66.82 66.62 67.07 67.66 67.45 67.12 66.59 66.59 66.54 67.38 68.65 68.40 69.77 70.37 70.99 71.94 72.17 72.29 73.01 72.64 72.16 72.86 71.69 70.56 71.59 71.93 73.12
64.61 64.14 65.26 65.20 66.64 67.20 66.29 64.62 63.78 64.24 64.68 64.91 65.02 65.09 65.17 65.47 66.02 66.23 66.51 67.28 67.15 66.93 66.69 66.16 66.21 66.53 67.84 68.08 68.85 69.73 70.93 71.52 72.19 72.79 72.62 70.98 72.24 72.40 71.61 70.51 72.12 71.57 72.82
63.12 62.64 63.72 64.17 62.81 64.18 65.20 65.64 63.43 64.22 64.29 63.97 64.06 64.04 64.14 64.85 65.47 65.92 65.92 66.49 66.59 66.93 66.36 66.79 66.30 65.95 67.01 68.14 68.25 69.38 70.34 71.52 72.36 72.48 72.94 72.31 71.78 71.85 71.78 71.32 71.41 71.54 73.34
62.14 62.34 63.29 62.47 64.07 65.18 65.53 64.96 64.29 65.63 64.52 63.89 63.84 63.48 63.53 64.24 65.43 65.56 66.31 66.48 66.19 66.45 66.18 66.03 66.19 65.67 66.86 67.84 67.60 69.02 69.89 70.29 71.61 72.29 72.41 71.95 71.62 71.95 72.31 71.52 72.21 72.52 72.62
60.59 61.54 61.84 62.76 65.07 65.54 64.53 65.60 66.09 65.24 65.10 64.51 63.68 62.91 63.39 64.12 64.53 65.06 64.60 65.02 65.23 65.75 65.71 65.78 66.05 65.77 66.75 67.26 67.41 68.46 67.79 69.81 71.41 72.05 71.45 71.37 71.45 72.45 72.43 70.92 71.25 71.89 72.25
61.51 62.11 61.50 63.72 65.48 65.65 65.09 65.20 64.71 64.85 63.51 63.29 63.26 63.26 63.31 62.77 64.28 65.08 65.56 64.56 65.56 65.49 65.72 65.27 65.77 65.18 64.94 66.68 67.56 67.97 67.03 69.96 71.64 72.67 72.04 70.66 70.69 71.68 71.43 70.51 70.63 70.29 72.20
61.01 61.24 64.02 64.84 65.79 66.42 65.87 65.01 64.81 64.34 63.93 63.86 63.25 63.83 63.77 63.49 64.65 64.69 64.03 64.84 65.03 66.12 65.95 67.20 65.92 65.30 65.95 68.71 68.06 67.75 66.63 69.82 71.70 72.97 71.93 70.54 70.66 71.14 70.69 70.01 70.14 70.34 70.55
60.90 62.26 64.40 65.47 66.16 66.78 66.11 65.42 65.25 64.62 63.82 64.58 64.13 64.60 63.60 64.53 64.42 63.55 63.68 63.58 63.93 63.75 65.08 65.65 65.75 65.16 66.41 67.60 68.12 67.07 66.56 69.46 71.70 72.37 72.91 70.40 69.91 69.91 69.18 69.24 69.04 69.77 70.47
61.06 63.37 63.50 65.09 65.96 66.12 66.01 66.23 65.16 66.04 65.01 64.63 65.05 63.86 64.27 64.21 64.55 63.79 63.51 62.73 65.05 64.30 63.51 66.54 65.77 65.63 66.27 67.40 67.94 67.06 67.96 70.09 70.92 71.63 72.36 71.26 69.36 68.72 69.16 68.94 69.54 70.10 70.72
61.59 64.22 63.15 64.64 64.33 65.73 66.30 66.39 66.45 65.98 66.64 65.05 65.44 65.27 65.08 65.86 65.47 64.21 63.61 63.55 66.01 66.45 66.37 67.06 65.39 67.46 66.51 67.65 67.45 66.84 67.56 70.09 71.03 71.35 72.42 71.17 68.95 69.51 68.81 69.56 69.87 70.23 70.42
62.35 62.49 64.05 64.50 64.62 66.08 66.52 66.25 66.21 66.45 66.46 66.16 66.16 64.33 64.11 65.13 65.32 65.14 64.15 64.40 65.25 67.72 66.85 66.04 64.69 64.95 65.57 65.48 66.08 66.49 67.85 69.79 70.73 71.14 71.99 70.36 69.21 70.07 68.98 69.38 69.14 70.49 70.67
62.98 63.68 62.70 63.64 64.64 65.85 66.76 66.68 66.80 67.24 67.12 67.26 65.20 63.30 62.54 65.39 65.24 65.93 66.17 65.62 65.97 67.12 66.97 65.61 66.52 66.20 65.99 64.78 65.63 67.13 68.64 69.83 70.66 70.86 69.95 70.48 69.67 68.22 66.94 68.00 69.38 69.99 70.85
62.99 64.53 63.36 64.83 65.65 66.05 66.04 64.50 66.77 68.07 67.36 67.59 63.96 62.08 61.57 64.70 65.14 66.02 66.81 66.25 66.67 66.45 65.94 65.75 65.70 66.60 65.49 64.36 64.14 66.62 68.59 70.02 70.65 69.31 68.22 69.69 67.27 67.86 68.85 67.15 67.79 67.02 69.18
62.62 64.46 64.22 63.23 65.34 64.52 64.36 63.92 64.83 65.94 65.30 65.76 65.66 64.11 64.38 63.47 64.63 65.82 66.58 66.26 66.23 66.05 66.04 66.52 65.20 65.85 66.09 66.01 64.16 66.67 68.02 69.04 66.09 66.70 66.58 67.12 66.70 66.78 67.59 66.51 66.73 66.94 69.43
62.66 63.92 64.19 63.70 64.06 64.83 64.92 67.21 65.91 66.52 66.43 64.71 65.82 65.72 64.62 64.64 64.64 64.96 65.83 64.75 65.10 65.22 65.65 66.04 66.60 65.33 66.44 68.18 63.44 62.70 60.16 62.91 64.61 66.17 68.26 68.04 66.16 66.98 65.93 66.44 66.53 65.95 66.21
61.49 63.48 63.80 63.46 63.58 65.04 67.05 67.10 66.32 66.84 67.16 65.97 65.47 64.98 64.64 64.12 64.72 65.20 64.94 65.00 64.92 65.11 64.60 66.91 66.59 65.70 64.25 67.09 66.44 62.90 58.75 58.15 60.57 63.94 65.22 67.62 66.95 65.72 65.38 66.06 66.02 65.92 66.71
61.65 63.85 63.82 64.10 63.83 65.64 66.75 65.41 65.58 64.92 65.06 66.42 65.99 66.82 65.90 64.94 64.99 64.86 65.31 65.32 65.50 64.47 67.04 66.25 68.56 67.30 67.59 64.25 65.94 67.69 66.80 62.95 59.49 57.81 63.86 64.91 64.94 65.20 65.60 65.29 65.43 66.01 66.24
61.66 62.97 64.30 64.65 64.73 65.59 66.05 65.83 64.86 65.08 66.44 67.16 67.06 65.72 65.76 66.06 64.87 64.80 65.08 65.51 65.54 66.84 67.87 67.06 67.49 67.19 69.70 65.49 65.54 64.70 63.00 65.06 64.09 59.54 57.55 59.36 62.54 64.08 64.81 65.29 65.40 65.35 66.09
61.57 62.70 63.92 64.66 63.91 64.72 65.40 65.25 65.36 64.91 65.26 65.30 64.82 64.93 64.54 65.91 65.20 65.26 64.91 65.70 66.67 66.93 67.35 68.13 67.80 68.02 67.92 67.20 65.73 64.18 64.61 63.33 60.70 60.75 58.25 58.66 59.10 60.47 63.83 64.55 64.92 65.65 66.03

GFSSE_sfc_wetblb_006.txt.gz
Wetbulb
70.05 70.12 74.07 74.12 73.62 73.14 72.27 71.48 71.17 70.97 70.62 69.93 69.07 68.28 67.47 67.10 66.75 65.95 65.10 65.38 65.65 66.24 67.26 68.47 69.31 69.39 69.43 69.98 70.20 71.54 73.47 74.20 73.59 73.13 74.36 73.86 73.57 74.24 74.28 76.03 76.00 74.69 76.11
71.13 71.26 74.03 74.13 73.75 72.73 72.73 72.54 72.30 72.03 71.64 71.14 70.13 69.30 68.03 67.65 67.54 67.09 66.08 65.65 65.98 66.22 66.91 67.82 69.35 69.19 69.44 69.55 70.52 71.50 72.40 73.55 74.33 74.01 73.96 74.24 74.97 75.01 74.69 75.09 75.11 74.66 75.56
70.60 72.50 72.02 74.09 73.60 73.10 73.00 72.83 72.56 72.44 72.37 71.80 70.76 69.92 68.63 68.07 67.84 67.72 67.19 66.72 66.30 66.54 66.86 67.42 67.98 69.68 69.79 69.66 70.28 71.33 72.12 73.18 73.81 74.76 74.15 72.27 72.65 75.01 74.79 75.33 74.80 74.98 75.06
69.07 71.98 71.96 73.86 73.61 73.56 73.31 73.32 73.09 72.97 72.45 72.00 70.83 70.36 69.31 68.64 68.39 68.28 67.79 67.61 67.35 66.98 67.23 67.18 67.63 68.38 69.33 69.70 70.03 71.13 71.71 72.76 72.67 73.53 72.50 72.02 72.88 75.17 74.46 75.16 72.65 73.94 74.60
68.36 69.56 73.66 73.84 73.67 73.84 73.81 73.62 73.61 73.17 72.40 71.53 70.05 69.60 69.15 69.34 69.00 68.69 68.59 68.50 68.16 67.72 67.41 67.34 67.71 68.20 69.28 69.67 71.00 71.73 71.77 72.24 72.39 72.49 71.55 71.86 72.04 74.36 75.38 75.21 75.06 74.89 74.91
63.94 68.26 73.05 74.46 74.39 74.01 73.33 73.79 73.59 72.70 72.25 71.28 69.51 69.00 68.92 68.86 69.62 68.97 68.22 68.38 68.68 68.41 67.82 66.97 67.58 68.76 69.14 69.72 70.97 71.44 71.94 71.74 71.88 71.08 71.07 71.93 71.73 74.04 75.11 74.94 75.01 74.84 74.60
66.06 67.06 69.90 72.81 71.57 70.63 70.32 71.41 72.32 71.01 70.05 69.51 68.99 68.71 68.54 68.54 68.05 67.76 68.03 68.13 68.32 68.32 68.07 67.03 67.19 68.09 68.62 68.90 69.59 70.83 71.75 71.14 70.84 70.93 71.21 70.94 71.31 72.84 73.86 74.06 74.19 73.91 74.16
65.79 67.57 68.99 70.55 70.35 70.14 70.72 70.34 68.30 66.61 66.22 66.59 66.85 67.09 67.12 67.19 67.09 66.92 67.00 67.10 67.39 67.94 68.15 67.42 66.77 66.82 67.91 68.59 68.73 70.06 70.59 71.02 70.77 70.35 71.27 70.67 71.48 72.60 73.14 72.67 73.01 73.24 72.82
66.17 66.45 67.38 67.64 69.71 70.06 69.71 67.74 65.77 64.15 63.98 64.57 64.86 64.92 65.40 65.53 65.72 65.91 66.51 66.84 67.07 67.62 67.54 67.48 66.64 67.13 67.23 67.78 68.38 69.55 70.25 70.81 69.52 70.63 71.05 70.90 72.08 72.66 72.34 72.05 71.68 72.03 72.90
63.46 62.91 66.24 67.11 65.49 66.72 66.38 66.24 65.51 64.90 64.67 64.12 64.50 64.57 64.37 63.93 64.50 65.29 66.32 66.37 66.78 67.61 67.36 67.28 66.98 66.24 67.05 67.89 68.67 69.33 69.98 70.40 69.47 71.00 70.94 71.33 71.86 72.21 70.96 70.36 69.47 70.31 71.71
62.17 64.94 64.67 64.53 65.59 66.20 66.08 66.23 65.77 66.20 65.81 65.04 64.91 63.97 63.38 63.20 63.73 64.61 65.95 66.65 66.50 67.15 67.21 66.92 66.72 66.62 66.64 67.45 68.74 68.52 68.91 67.94 68.55 70.25 71.11 72.37 72.23 72.36 70.98 71.36 70.02 69.99 70.94
61.92 64.01 64.43 64.78 65.89 66.92 64.64 67.09 67.31 66.64 66.30 65.62 64.54 64.35 63.49 63.38 63.61 63.66 64.79 65.29 65.81 66.20 66.44 66.61 66.58 66.53 65.56 64.67 66.30 67.30 66.42 66.33 68.60 68.82 70.76 72.34 72.14 72.49 71.77 71.47 70.19 70.64 70.69
62.83 64.07 63.96 65.90 67.44 67.38 65.68 66.18 65.52 65.20 65.45 65.42 64.47 64.18 63.79 63.08 62.64 63.21 64.44 64.93 64.84 65.12 64.55 64.88 64.48 64.45 63.43 63.11 64.68 66.03 65.66 65.55 68.59 69.51 71.18 72.35 72.10 72.19 71.64 70.64 70.24 69.82 69.85
63.03 64.49 66.44 67.32 67.24 68.37 67.10 65.30 65.31 65.20 65.48 63.83 64.54 64.53 63.49 63.14 63.10 64.00 63.72 63.83 64.17 64.66 63.93 64.59 64.00 64.30 63.56 63.38 66.17 66.00 66.02 65.36 69.58 68.23 70.42 71.97 71.44 71.26 70.88 70.97 69.85 69.68 69.70
63.68 64.21 67.08 66.95 68.47 68.92 68.04 66.66 66.90 66.06 64.07 65.36 64.35 63.96 63.78 62.55 63.19 63.67 64.08 63.51 63.65 63.58 63.55 63.70 64.28 63.76 62.42 63.71 65.76 66.29 66.42 66.00 69.78 69.89 69.96 70.94 70.33 70.80 71.11 70.64 69.96 69.25 69.67
64.43 65.63 66.59 67.30 68.76 68.41 67.87 67.38 66.67 66.45 65.41 65.06 64.86 62.55 64.62 63.68 63.12 63.60 62.90 63.53 63.53 63.65 63.97 64.03 63.97 63.88 63.96 65.05 65.81 67.04 66.80 67.23 68.95 69.47 69.44 69.54 69.85 69.94 70.27 70.31 68.69 69.39 69.73
64.40 66.59 66.66 66.78 66.95 67.74 67.24 67.47 67.21 66.60 66.56 65.43 65.24 63.63 63.40 64.81 63.91 64.11 63.38 63.51 62.92 63.51 63.36 63.95 63.89 64.37 64.41 65.84 65.89 66.40 66.11 67.32 68.47 69.42 69.01 68.63 68.62 69.77 69.66 69.13 69.89 70.06 69.78
65.53 66.32 66.87 65.00 66.63 67.96 68.29 67.72 66.61 67.14 67.76 66.75 66.61 65.08 62.20 63.78 64.77 64.44 63.47 63.40 63.90 63.69 63.47 63.25 63.52 64.45 63.82 64.15 64.63 64.47 64.90 67.59 68.36 68.64 68.52 67.64 67.51 67.53 68.57 69.42 69.34 69.95 69.85
65.57 66.57 66.53 67.35 66.14 67.76 67.62 66.29 66.11 67.73 67.52 68.16 67.15 63.80 62.72 62.83 64.91 64.90 63.73 64.26 64.28 63.38 63.09 63.27 62.74 62.73 63.72 63.98 64.50 64.08 65.37 66.77 68.43 68.58 67.35 67.26 67.33 67.06 66.91 68.66 68.56 69.02 69.13
65.67 67.03 67.37 66.81 67.94 68.38 66.48 64.84 64.77 67.86 68.61 67.94 65.92 63.52 62.79 62.26 64.35 65.16 63.94 63.60 65.08 63.27 62.58 63.05 62.78 64.39 63.52 63.92 64.62 64.37 65.59 67.38 68.16 66.93 66.73 67.35 66.75 66.35 66.95 65.27 66.43 67.22 67.87
65.30 66.03 67.07 67.07 68.35 67.37 65.07 65.22 65.89 65.81 67.06 66.32 66.39 65.20 63.94 63.46 63.21 65.07 64.18 63.51 64.52 63.38 62.86 62.70 63.29 63.12 63.21 62.98 62.71 62.57 64.46 66.88 66.48 66.64 66.83 66.61 65.50 65.21 65.21 66.36 65.77 65.24 66.41
64.15 65.59 66.84 67.04 67.99 67.31 66.56 67.66 67.21 67.14 66.55 66.70 66.96 65.75 65.23 64.16 64.38 64.82 64.17 63.68 63.75 63.54 63.51 62.90 64.02 62.68 61.28 63.06 61.56 62.06 58.48 61.20 63.86 64.86 65.28 64.47 64.74 65.03 64.65 65.03 65.11 65.22 65.70
63.56 65.07 65.94 66.98 67.40 68.09 68.52 67.38 67.48 66.78 65.70 66.19 66.21 65.10 64.04 64.87 64.99 65.12 64.83 63.95 63.77 64.70 63.42 63.29 62.87 62.15 61.34 62.75 63.65 62.05 58.08 56.88 60.57 63.64 63.52 63.91 64.40 64.03 64.28 63.89 64.53 65.19 65.21
62.68 64.63 66.19 66.91 67.34 67.44 67.89 66.87 66.00 64.41 63.07 64.89 65.45 65.61 63.83 65.19 64.62 64.44 64.65 64.41 64.36 64.55 63.24 62.96 63.55 62.36 61.76 60.70 63.47 64.17 64.28 61.67 58.07 58.21 62.35 63.13 63.82 63.39 63.62 64.25 64.24 64.81 65.44
63.40 64.39 65.87 66.79 67.30 68.27 68.60 67.67 66.05 65.66 65.16 65.67 64.41 64.46 64.35 62.65 64.76 64.81 64.54 64.81 64.14 64.24 64.02 63.67 63.29 63.44 63.63 62.61 63.33 63.56 62.81 62.02 61.71 59.44 57.60 60.06 62.76 63.64 64.10 64.10 64.55 64.75 65.57
62.61 63.63 65.79 66.72 66.59 68.03 68.60 67.23 67.18 64.71 64.46 64.33 63.13 63.69 64.18 64.47 63.46 64.86 64.46 65.32 65.15 64.53 65.50 66.31 64.87 64.06 64.75 64.14 64.47 63.05 62.16 60.39 59.87 59.24 58.46 59.32 59.85 62.05 63.64 64.14 64.05 63.85 64.27

GFSSE_sfc_wetblb_009.txt.gz
Wetbulb
65.66 69.12 74.24 74.19 73.67 72.69 71.60 70.89 70.58 70.07 70.08 68.98 68.01 67.64 66.86 66.43 66.03 65.39 64.32 64.19 64.69 65.25 65.81 66.83 67.63 68.50 68.98 68.71 69.12 70.53 71.72 72.96 73.89 73.65 73.95 73.45 74.50 74.60 74.02 74.62 75.74 74.60 75.95
66.78 69.66 74.07 74.07 73.62 72.70 72.48 72.00 71.92 71.78 71.26 70.24 69.65 69.20 68.55 67.65 67.43 66.96 66.14 65.36 65.15 65.63 66.21 66.42 67.01 68.66 68.87 68.77 68.77 70.11 70.24 72.37 73.55 73.75 73.82 73.79 74.49 74.35 74.35 73.84 75.54 74.27 75.29
67.24 69.36 72.59 74.00 73.92 73.24 73.25 73.03 72.85 72.39 72.04 70.84 70.43 70.08 69.42 68.51 67.98 68.13 67.57 66.82 66.62 66.56 66.62 66.64 67.12 67.28 69.05 69.44 69.20 69.66 70.57 72.18 73.28 73.85 73.64 71.92 72.78 74.77 74.64 75.52 74.59 74.75 74.65
68.63 69.57 70.41 74.00 73.68 73.57 73.38 73.05 72.91 72.63 72.39 71.64 71.12 70.60 70.18 69.43 68.69 68.57 68.43 68.15 67.85 67.62 67.33 67.39 67.07 67.33 67.46 68.55 69.36 69.54 70.49 71.18 72.78 73.19 71.54 71.56 71.98 75.15 74.58 75.49 74.42 74.95 74.99
68.83 68.70 70.10 74.00 73.70 73.87 73.63 73.25 73.15 72.98 72.68 71.74 71.19 70.17 69.66 69.57 69.64 69.11 69.16 69.10 68.83 68.65 68.39 67.89 67.69 67.36 67.50 68.42 69.82 70.73 70.55 70.79 72.11 72.38 70.98 70.27 70.57 73.97 75.18 74.60 74.52 74.20 74.35
63.59 69.69 72.39 73.85 73.70 73.92 73.20 73.30 73.50 73.05 71.94 71.45 70.64 69.71 69.22 68.83 69.91 69.81 68.43 68.38 68.55 68.77 68.90 68.49 67.52 67.61 67.80 68.98 69.49 69.93 71.24 70.81 71.02 70.26 70.21 70.28 70.73 73.80 75.42 73.72 73.87 75.22 74.91
65.62 69.57 71.97 73.85 74.17 74.02 73.07 72.68 73.15 71.77 70.73 69.43 69.54 69.22 68.88 68.76 68.43 68.62 68.34 68.29 68.41 68.64 68.56 68.70 68.03 67.88 68.44 68.70 68.93 69.52 70.66 70.54 68.85 69.56 69.43 69.01 69.83 72.65 74.82 74.12 74.75 75.14 74.80
64.41 66.54 68.44 72.75 72.19 71.67 71.52 71.71 70.85 69.41 68.00 66.81 66.64 67.03 67.32 67.59 67.51 67.56 67.63 67.59 67.78 67.64 67.85 68.48 68.14 68.56 68.54 67.93 68.46 68.65 69.68 69.67 69.11 69.23 69.59 69.32 70.51 72.46 73.72 73.77 74.54 74.71 74.53
61.91 64.31 65.18 66.39 68.84 71.69 71.60 71.12 69.58 67.42 65.89 65.13 64.86 65.06 65.30 65.63 65.92 66.14 66.35 66.54 66.92 67.04 67.31 68.52 67.92 68.15 68.25 67.34 67.35 68.58 69.07 69.00 67.98 68.24 69.76 69.17 71.93 72.56 73.22 72.93 72.93 72.77 73.60
58.61 59.10 59.86 63.45 64.74 65.19 65.94 68.66 67.18 65.96 65.90 65.53 65.30 64.94 64.68 64.48 64.22 64.82 65.25 65.80 66.55 66.92 67.18 68.00 67.73 67.57 67.97 67.83 67.85 68.39 68.65 69.15 67.70 68.34 69.39 69.56 72.60 72.76 72.78 72.56 72.61 72.61 72.74
58.26 57.69 56.72 57.96 59.16 60.47 61.77 64.68 66.64 66.98 66.54 66.26 64.82 63.80 61.89 59.78 60.16 62.22 64.26 66.16 66.78 67.01 66.84 67.58 67.37 67.10 67.41 66.75 66.93 68.05 68.32 65.69 66.83 67.62 69.58 71.95 72.52 72.77 72.23 71.66 70.21 70.38 71.60
55.73 56.98 57.85 59.40 59.57 60.20 63.14 61.34 61.76 62.21 62.72 61.41 60.87 60.38 59.61 59.40 59.70 62.30 63.75 65.35 65.86 66.57 67.02 66.86 67.01 67.10 66.27 61.65 63.22 67.52 64.26 65.44 65.34 67.39 69.51 72.35 72.24 72.43 71.72 69.90 69.70 70.13 70.90
56.68 57.72 57.78 58.55 60.28 60.37 60.37 60.85 59.90 59.75 60.07 60.48 60.60 60.41 59.57 60.30 59.49 59.19 60.10 61.17 60.96 63.98 62.73 64.22 64.23 63.88 62.48 61.05 61.22 63.60 64.34 64.15 64.29 67.03 69.89 71.48 71.64 72.18 71.46 70.60 69.70 69.94 69.62
55.84 56.87 60.31 61.13 60.63 60.75 61.49 60.80 60.48 61.14 60.17 59.55 59.99 60.54 59.60 59.21 59.00 59.46 60.18 60.40 60.21 60.99 61.40 61.48 61.17 61.74 61.63 60.82 60.40 63.36 63.96 63.13 65.04 66.65 68.61 71.89 71.33 71.82 71.96 71.38 70.36 70.17 69.51
56.19 58.46 60.11 60.40 60.82 61.80 61.44 61.30 61.17 60.91 60.57 60.21 60.70 61.04 60.75 59.37 59.67 59.75 60.13 59.93 59.63 60.25 60.57 60.70 61.05 61.52 61.26 60.53 60.80 63.54 64.00 63.24 66.70 67.03 66.84 71.19 71.41 71.51 71.38 71.50 70.72 69.69 69.08
56.35 58.38 59.50 60.17 61.23 61.73 61.50 60.99 61.06 61.81 61.80 61.29 61.18 61.18 61.55 61.11 60.71 59.04 59.44 59.28 59.00 59.13 60.12 60.36 60.68 61.01 60.45 59.36 60.30 64.08 63.71 64.77 65.67 66.35 67.55 69.59 70.82 70.38 70.72 70.72 70.06 69.63 69.43
56.28 59.26 59.04 59.85 60.34 60.11 60.03 60.84 62.10 61.88 62.36 61.26 61.26 61.15 62.26 62.27 61.43 59.16 59.30 59.14 58.76 59.13 59.69 60.31 60.51 60.66 60.41 61.33 61.36 63.48 63.78 64.83 65.47 66.46 66.55 68.00 68.69 69.92 70.56 70.68 70.04 70.00 70.06
57.68 58.61 59.45 61.47 59.72 59.44 60.68 61.11 61.58 62.10 61.75 61.84 61.94 60.93 61.14 62.23 61.42 59.51 59.63 59.30 59.33 58.86 58.92 59.38 59.74 59.56 60.89 60.48 60.44 61.08 62.40 63.96 65.60 66.73 67.16 67.55 68.31 68.31 70.16 70.06 69.53 69.30 69.77
57.26 58.41 58.83 59.45 58.94 60.22 60.52 61.22 61.35 61.92 61.78 62.42 61.92 60.36 60.18 59.75 60.85 59.95 59.82 60.09 59.56 58.92 58.80 59.48 59.18 59.78 59.14 59.60 60.82 61.11 62.13 61.72 64.63 67.57 67.21 67.39 67.59 67.35 67.28 68.73 69.01 69.34 69.62
58.41 58.92 58.78 58.61 59.47 60.58 60.01 61.34 60.73 61.57 62.30 62.74 61.70 60.32 60.92 59.84 60.88 60.19 60.26 60.61 59.78 58.66 58.20 58.68 58.33 59.28 59.69 59.80 62.33 62.18 62.30 61.92 64.44 66.47 66.26 66.94 66.97 66.65 66.51 66.40 67.10 67.48 68.47
58.40 59.22 59.06 58.72 58.68 59.02 58.29 59.69 59.13 58.78 60.66 61.35 61.97 61.60 60.82 59.85 59.48 59.07 60.00 59.79 59.98 58.34 58.13 58.67 58.80 58.56 58.66 58.86 58.79 60.60 61.08 62.37 63.20 65.83 66.15 65.76 65.77 65.47 65.08 65.74 65.88 65.29 65.69
57.33 58.58 59.90 58.74 59.00 58.79 59.67 61.03 60.69 60.98 61.76 61.92 61.96 61.76 61.60 62.05 61.05 60.61 59.97 59.45 60.15 59.02 58.82 58.96 58.48 57.75 57.46 59.46 57.70 58.59 57.59 59.79 62.16 64.61 65.04 64.65 64.57 64.09 64.85 64.94 64.51 65.21 65.37
56.48 57.52 59.40 59.40 58.61 59.61 61.02 61.51 60.43 61.14 60.91 60.87 61.33 60.36 60.87 61.62 61.84 60.88 60.91 59.69 59.68 59.51 58.82 59.08 58.67 57.90 56.68 58.74 61.40 58.22 55.06 54.44 59.57 62.49 63.25 63.53 63.42 63.90 64.18 63.84 64.20 65.08 65.05
57.55 58.47 59.78 59.22 58.55 60.37 60.42 59.84 59.18 58.43 58.08 59.86 61.05 61.84 61.14 62.13 61.33 61.50 61.05 60.42 59.49 59.28 59.27 60.04 60.09 59.81 59.88 59.18 59.72 60.91 59.64 59.20 57.91 57.38 61.71 62.35 63.09 62.64 62.61 63.27 63.71 64.41 64.66
57.79 58.12 58.54 58.40 58.87 60.34 60.35 59.92 60.11 59.56 60.42 61.12 60.02 60.15 59.07 60.66 61.68 61.95 61.17 60.20 59.21 59.24 59.30 60.62 57.81 60.43 60.26 59.31 60.27 58.49 58.69 59.75 60.93 59.05 57.08 59.03 61.64 62.10 62.30 62.91 63.47 64.18 64.84
57.56 57.86 58.71 58.66 59.04 60.44 61.02 60.05 59.99 59.72 60.74 59.70 58.33 58.62 59.32 60.45 60.38 61.37 61.30 60.28 59.71 59.50 59.65 60.20 59.64 60.21 59.46 60.28 59.75 59.30 59.45 58.02 59.48 58.71 58.04 58.51 58.83 60.58 62.29 63.39 63.35 64.38 65.08

GFSSE_sfc_wetblb_015.txt.gz
Wetbulb
63.37 66.22 74.16 73.95 72.87 71.69 70.77 70.48 69.80 69.12 68.69 68.24 67.79 67.38 67.13 66.74 66.14 65.53 64.79 64.50 64.45 64.47 64.71 64.89 64.68 65.29 66.05 66.76 67.51 68.15 68.96 69.23 71.18 73.46 73.65 74.73 74.28 74.23 74.60 75.50 75.28 73.88 75.41
63.50 66.71 74.09 73.78 72.98 71.88 71.81 71.18 71.25 70.76 70.12 68.97 68.14 67.95 67.88 67.55 67.29 66.75 66.34 65.61 65.24 65.45 65.85 65.80 65.66 65.52 65.87 66.80 67.24 67.88 68.42 69.25 70.00 72.89 73.52 74.32 74.15 73.89 74.28 74.94 75.17 74.58 75.36
63.42 67.10 72.25 73.89 73.44 72.85 72.56 72.26 71.72 71.23 70.61 69.46 68.74 68.06 68.24 68.36 68.06 67.74 67.66 67.28 67.04 66.66 66.74 66.99 66.81 66.49 66.19 66.42 67.54 67.86 68.42 69.07 69.46 71.92 73.29 72.20 71.33 73.70 74.23 74.86 74.98 75.26 75.15
65.36 68.08 70.86 73.79 73.41 73.26 72.99 72.60 72.08 71.43 70.61 69.78 69.36 69.37 69.36 69.51 69.16 68.57 68.27 68.26 68.35 68.24 67.98 68.00 67.69 67.58 66.89 66.70 66.53 67.70 68.44 68.64 69.57 71.19 71.14 72.03 71.51 73.08 73.70 74.19 74.55 74.73 74.73
65.39 68.32 69.81 73.59 73.46 73.46 73.09 72.94 72.42 71.68 71.21 70.44 70.19 70.36 70.11 70.40 69.65 69.46 68.94 68.66 68.87 69.01 68.39 67.94 68.13 67.92 67.94 67.40 66.97 67.88 68.24 68.89 69.82 69.42 70.10 70.04 69.90 72.05 73.33 74.09 74.28 74.71 74.23
64.36 66.93 69.89 73.64 73.56 73.59 73.36 73.04 72.79 71.93 71.38 70.96 70.91 70.91 70.45 70.09 69.37 69.51 69.33 69.30 68.99 68.81 68.72 68.71 68.42 68.98 68.40 68.13 68.44 68.63 68.08 69.54 69.52 67.00 68.71 69.72 70.18 71.32 72.98 73.24 74.06 74.04 73.29
63.38 65.83 69.05 73.65 73.83 73.93 73.49 72.97 72.59 72.40 72.12 71.51 71.51 70.94 70.42 69.68 69.41 69.03 68.80 68.72 68.72 68.54 68.46 68.42 68.64 69.08 68.85 68.50 68.77 68.55 69.00 69.03 67.09 66.40 67.86 68.28 69.05 71.37 72.50 73.02 73.71 73.96 74.11
64.70 65.31 68.11 73.19 73.68 73.60 73.56 73.39 73.01 72.83 72.60 72.27 71.73 70.50 69.84 69.22 68.64 68.67 68.54 68.53 67.99 67.83 68.05 68.10 68.70 68.74 69.00 68.76 68.74 68.39 68.67 68.59 67.57 66.16 67.39 67.95 69.45 71.45 72.73 73.29 73.14 73.76 74.72
65.50 66.97 69.32 71.09 72.32 73.78 73.26 73.05 73.14 73.17 72.50 71.47 70.44 69.60 68.25 66.86 66.26 66.46 66.63 66.96 67.22 67.51 67.23 67.46 67.98 68.66 68.88 68.20 68.44 68.11 67.94 68.74 65.80 65.86 67.09 67.29 70.37 71.65 72.86 72.94 73.04 72.84 74.03
65.73 67.20 67.92 67.43 68.62 68.39 69.56 73.44 72.89 71.73 70.66 69.85 68.81 66.82 66.00 66.05 66.03 66.01 65.76 65.43 65.55 66.44 66.80 67.21 67.02 68.25 68.50 68.06 68.25 67.50 67.42 68.33 65.57 65.24 66.05 66.91 70.46 71.99 72.80 72.89 72.79 72.92 74.12
61.34 60.84 62.26 63.02 64.21 65.13 65.71 67.51 70.61 69.96 69.20 67.86 66.17 66.48 65.92 61.76 60.16 61.38 62.75 63.89 64.90 65.91 66.75 66.70 66.70 67.70 67.50 67.19 67.28 67.04 66.85 63.78 64.21 64.73 65.59 68.82 70.60 71.98 72.75 73.11 73.19 72.99 73.35
56.47 55.59 59.28 59.87 61.82 62.03 63.45 61.64 62.92 62.56 61.93 61.62 62.56 61.29 60.09 58.70 57.68 59.97 61.97 64.11 64.75 65.50 66.22 66.46 66.80 67.01 66.82 63.29 63.66 66.24 61.67 62.95 63.57 64.43 65.21 69.24 70.53 71.83 72.58 72.84 72.99 72.35 72.35
56.18 54.31 55.91 57.29 58.19 58.03 58.97 58.71 59.52 60.07 59.16 59.25 60.87 59.84 58.52 58.76 58.02 58.42 57.86 58.13 58.48 61.89 60.76 62.41 62.75 63.10 63.33 61.45 60.98 60.94 61.33 62.51 62.78 63.90 65.84 68.83 70.64 71.63 72.47 72.52 72.25 71.95 71.65
53.02 54.41 56.22 56.60 56.77 57.31 58.16 58.64 58.31 58.56 58.16 58.56 59.22 58.81 57.82 57.34 57.16 57.06 57.12 57.80 58.38 58.70 58.80 59.34 60.41 61.47 61.76 61.39 60.83 60.31 60.75 61.79 62.48 62.34 63.82 68.44 70.55 71.30 71.97 72.08 71.46 71.16 70.56
52.80 55.04 55.74 56.94 57.27 58.31 58.64 58.30 58.10 58.48 58.98 58.52 58.45 58.66 58.38 57.40 57.02 57.44 58.24 59.64 59.82 57.90 57.60 58.28 59.08 60.05 60.50 60.82 60.24 59.66 59.54 61.08 62.59 62.26 62.88 67.72 70.58 71.10 71.68 71.78 71.41 71.46 71.14
53.96 55.06 56.81 57.75 58.67 59.21 58.44 58.10 58.59 58.70 58.87 59.00 58.92 59.34 59.69 58.46 57.80 57.80 59.47 59.34 57.16 56.86 57.00 58.06 58.62 58.85 59.31 59.24 59.62 59.32 59.42 61.09 62.17 62.56 63.39 65.06 70.57 70.81 71.43 71.04 71.24 70.64 70.05
55.91 57.41 57.75 57.93 59.16 59.03 58.22 58.31 58.11 58.26 59.43 59.34 59.74 59.81 60.07 59.12 58.14 58.40 59.12 58.46 56.76 57.12 57.14 57.26 57.80 58.40 58.28 58.58 58.89 58.74 59.40 60.81 61.90 62.88 64.03 65.49 67.39 70.23 71.16 71.13 70.52 70.32 70.25
56.66 57.04 57.17 60.78 58.79 58.10 57.24 57.39 58.49 59.14 59.30 59.36 59.36 59.72 60.43 60.31 59.23 58.12 57.38 56.66 57.38 57.40 56.64 56.44 56.72 56.76 57.04 57.14 56.94 57.70 59.52 60.27 61.66 63.28 64.63 64.98 65.59 67.45 69.65 70.06 69.87 70.19 70.35
56.96 56.38 56.86 58.16 57.51 57.06 57.16 57.46 57.52 58.66 58.94 59.34 59.99 59.91 60.35 60.62 60.27 57.76 57.04 56.94 57.84 57.08 55.98 56.24 55.98 56.58 56.12 56.28 57.40 57.96 58.50 59.42 61.49 64.60 65.39 64.30 64.94 65.66 66.68 69.29 69.40 69.74 69.16
56.11 56.40 56.37 56.35 56.06 57.25 57.00 56.63 57.83 57.85 58.71 60.12 60.11 60.29 61.14 60.29 59.53 56.96 56.30 57.58 57.84 56.42 55.47 55.43 55.36 56.90 56.76 56.26 58.91 58.42 57.84 58.60 60.67 63.17 63.90 65.83 66.03 66.12 66.64 67.47 68.06 67.92 68.84
55.82 55.87 55.71 56.02 56.45 56.47 55.16 56.59 56.74 57.11 57.69 58.64 59.58 60.91 61.64 60.79 59.49 57.54 56.40 57.80 57.54 55.85 55.64 55.62 55.48 56.36 55.59 56.40 55.55 54.95 58.84 60.87 60.39 61.77 62.89 64.44 64.51 66.46 67.00 66.57 66.48 66.87 66.83
55.54 55.70 55.41 55.90 56.55 56.01 56.08 57.79 57.76 57.38 59.22 59.36 59.20 60.98 62.26 61.29 59.65 57.82 56.98 57.84 57.06 56.02 55.60 55.70 55.78 56.40 55.30 56.44 54.12 53.49 52.11 56.68 61.08 62.67 63.56 64.13 64.22 65.64 65.44 65.98 65.94 65.45 65.41
55.37 55.46 56.20 55.92 56.50 56.11 58.03 57.65 57.32 57.73 58.56 57.76 58.04 59.10 59.59 61.45 61.02 59.84 58.75 57.88 56.86 56.28 55.09 55.28 55.94 56.16 54.37 56.58 56.42 54.48 51.92 51.43 57.58 61.40 62.45 63.56 63.85 64.10 63.96 64.42 65.04 64.87 64.86
55.20 56.39 56.45 56.57 55.86 57.40 57.85 56.89 56.02 55.90 54.98 56.50 57.18 58.56 58.98 61.15 60.76 60.20 59.63 58.26 57.32 56.66 55.56 55.98 56.98 56.10 55.98 55.33 56.98 58.20 57.48 58.53 56.00 56.07 60.78 61.65 63.17 62.59 62.93 63.55 64.17 64.25 64.71
55.01 56.08 56.21 55.94 56.06 57.26 57.29 57.39 56.65 55.09 56.42 57.02 56.94 56.52 56.74 59.39 60.38 60.26 58.37 57.61 57.30 56.78 56.10 56.70 56.40 56.40 56.52 56.56 57.16 57.26 57.00 58.31 58.14 58.58 56.08 58.61 61.26 62.15 62.81 62.77 63.67 64.03 64.47
54.43 55.86 55.20 56.34 56.87 57.25 57.57 57.62 56.04 55.60 55.52 55.78 55.42 55.84 56.40 58.64 58.00 58.37 58.76 57.25 57.25 56.80 57.44 56.98 56.92 56.64 56.62 58.38 59.85 58.73 58.14 56.82 56.78 57.94 57.80 58.33 58.31 60.22 62.09 62.61 63.01 63.43 63.88

GFSSE_sfc_wetblb_021.txt.gz
Wetbulb
64.39 66.57 74.08 73.94 72.92 71.65 70.39 69.52 69.08 68.68 68.24 68.06 67.58 67.00 66.57 66.07 65.75 65.13 64.87 64.47 63.99 64.17 64.28 64.40 64.30 64.14 64.97 65.42 65.88 66.73 67.19 68.52 69.43 70.67 73.06 73.64 74.03 74.48 75.32 75.55 75.46 74.97 76.19
67.12 67.44 74.21 73.91 73.20 71.87 71.67 71.03 70.61 70.17 69.73 68.32 67.92 67.53 66.97 66.48 66.20 65.69 65.30 65.14 65.24 65.38 65.48 65.72 65.64 65.36 65.29 65.80 65.89 66.39 66.78 67.27 68.47 69.20 71.62 73.09 73.79 74.30 74.67 75.10 75.32 75.25 75.48
66.31 68.23 73.10 74.06 73.43 72.57 72.07 71.82 71.31 70.75 70.51 69.21 68.45 68.02 67.83 67.66 67.31 67.18 67.01 66.88 67.00 67.04 66.99 67.02 66.94 66.97 66.47 66.70 66.25 66.94 66.91 67.19 67.64 68.59 69.95 73.92 74.41 74.11 74.74 74.82 75.47 75.26 75.41
67.18 69.57 71.06 74.06 73.49 72.90 72.71 72.34 71.85 71.41 70.78 70.17 69.25 68.71 68.43 68.26 68.28 68.25 68.44 68.30 68.03 68.15 68.24 68.30 68.27 68.32 67.92 67.69 67.03 66.48 66.89 67.29 67.35 68.43 69.06 72.52 73.98 73.25 74.16 74.80 75.38 75.46 75.18
67.72 70.42 72.21 74.16 73.71 73.21 73.01 72.94 72.65 72.03 71.43 70.43 69.18 68.70 68.30 68.45 68.70 69.44 69.17 68.93 68.50 68.36 68.10 68.93 68.64 68.23 68.34 68.38 68.26 67.53 66.84 66.70 67.64 68.45 68.77 71.09 73.87 73.08 73.43 74.39 74.45 74.78 74.88
67.34 69.90 71.80 73.84 73.76 73.49 73.29 73.22 72.92 72.35 71.75 70.77 69.54 69.39 69.26 69.40 70.45 70.09 69.77 69.63 69.48 69.26 69.05 69.15 69.21 69.91 69.15 69.08 68.98 68.55 67.73 66.92 66.89 68.00 69.26 69.40 72.16 72.70 73.02 73.50 74.11 74.30 73.74
67.39 68.85 70.97 73.71 74.03 73.81 73.84 73.59 73.09 72.52 72.15 71.78 70.70 70.27 70.27 70.93 70.47 70.30 69.90 69.65 69.39 69.53 69.37 69.23 69.08 69.87 70.01 70.06 69.38 69.10 68.58 67.52 67.01 67.75 68.75 69.40 70.94 71.17 72.78 73.36 74.16 73.51 73.48
68.13 68.66 70.93 73.24 73.93 73.76 73.69 73.51 73.11 72.79 72.62 72.47 71.83 71.73 71.53 71.41 70.62 69.98 69.65 68.90 68.64 68.81 68.98 69.01 68.49 69.58 68.85 68.97 68.77 69.10 68.59 67.80 67.96 67.78 68.84 69.40 70.00 70.59 72.04 72.84 73.99 73.09 72.81
69.20 68.84 70.81 72.14 73.57 73.85 73.41 73.14 73.33 72.97 72.85 72.80 72.21 71.92 72.05 70.62 70.52 69.20 67.67 67.20 67.16 67.36 68.03 68.28 68.33 68.75 68.49 68.24 68.39 68.39 68.64 68.16 68.28 68.40 67.58 69.00 69.27 70.53 72.00 72.62 73.26 72.84 72.71
68.00 69.24 69.90 71.81 72.52 72.38 72.41 73.58 73.54 73.34 73.08 72.81 72.59 72.17 71.83 69.89 68.88 66.78 67.33 66.60 66.27 66.32 66.72 67.30 67.42 67.43 68.27 68.35 67.82 67.82 68.42 68.53 68.47 68.33 68.25 68.17 69.19 69.91 71.61 72.52 72.89 72.89 72.79
66.72 68.02 69.32 69.98 71.47 71.92 71.70 72.01 73.38 72.96 72.66 72.42 71.66 71.13 70.40 68.51 67.38 67.16 66.47 66.14 65.60 65.55 65.38 65.88 66.46 66.87 66.92 67.37 67.50 67.62 68.06 67.94 68.16 67.87 67.89 68.12 69.04 69.57 70.79 72.10 72.72 73.14 72.79
65.88 66.97 68.14 69.29 70.67 71.27 70.75 72.14 72.38 71.71 71.11 70.97 70.36 69.46 68.88 67.96 67.65 66.47 65.82 64.94 64.78 65.05 65.31 65.81 66.34 67.03 67.11 67.70 66.81 67.72 67.31 67.35 67.90 67.47 66.80 68.03 68.82 69.50 69.97 71.66 72.40 72.57 72.99
65.94 67.06 67.76 69.18 70.36 70.68 70.23 70.78 70.51 70.26 69.50 69.49 69.46 68.95 67.83 66.97 67.08 66.60 65.75 65.22 65.54 64.59 64.39 65.00 65.40 65.56 65.56 66.41 67.00 66.96 66.80 67.37 67.23 67.16 66.13 67.73 68.45 69.23 69.62 71.21 71.88 72.50 72.76
64.72 66.18 67.60 68.58 69.10 70.09 69.80 68.85 68.15 67.40 67.35 66.51 66.95 67.72 66.97 66.20 66.08 65.57 64.66 64.62 64.38 64.12 64.56 65.24 65.02 65.50 65.79 66.26 66.96 66.68 66.76 67.13 66.99 67.01 65.68 67.04 67.93 68.86 69.17 70.93 71.28 72.05 72.31
63.44 64.80 65.69 67.84 68.76 68.79 67.77 66.81 65.92 65.41 65.53 66.31 66.43 66.64 66.08 65.43 65.76 65.84 64.86 64.46 64.31 64.36 64.32 64.33 64.40 64.57 64.89 66.39 66.59 66.43 66.26 66.73 67.08 66.71 65.14 66.58 67.31 68.04 68.94 70.62 71.33 71.80 71.92
63.41 63.01 64.77 66.48 67.89 66.94 66.16 66.08 65.50 65.98 65.85 66.04 65.78 66.01 66.36 65.93 65.65 64.92 64.55 64.26 64.50 64.59 64.33 64.14 63.54 63.95 64.61 65.82 65.86 66.19 66.24 66.57 66.46 65.74 64.30 66.44 66.71 67.15 68.17 70.35 71.36 71.53 72.25
63.01 62.16 63.39 65.55 66.02 65.69 65.40 65.67 65.91 65.36 65.60 65.51 65.84 66.67 65.88 66.00 65.65 65.56 64.77 64.80 65.12 64.26 63.40 64.08 63.96 64.30 64.23 65.14 65.14 65.53 65.97 66.00 65.50 64.89 65.48 66.81 67.88 67.00 68.17 69.95 70.94 71.48 72.11
61.65 60.99 62.96 63.48 64.29 65.05 65.36 65.79 65.16 65.46 65.50 65.61 65.76 66.10 66.35 66.43 66.43 66.06 65.18 64.85 65.25 64.28 63.83 63.36 63.40 62.69 63.49 63.82 64.55 65.05 65.11 65.24 65.28 65.24 65.87 66.41 67.91 68.93 70.06 69.81 70.38 71.18 71.80
60.73 61.85 62.20 63.31 63.46 64.61 65.69 65.03 65.33 65.95 65.16 65.64 65.98 66.05 66.47 66.22 66.27 66.03 64.79 64.76 65.05 63.78 63.16 63.51 62.88 62.88 62.93 63.52 63.89 64.29 64.52 64.77 65.17 65.40 66.17 68.01 69.00 69.81 70.80 70.13 70.29 70.20 70.74
61.11 62.93 63.67 63.40 64.88 65.36 64.73 64.38 64.70 64.97 64.93 65.75 65.93 66.12 66.74 66.57 66.38 66.13 63.01 63.37 63.77 63.12 62.73 62.91 62.93 62.86 63.12 63.34 63.28 63.09 64.28 65.30 65.58 66.46 66.99 68.32 68.47 70.11 70.75 70.56 71.21 69.20 69.00
61.16 61.99 63.23 63.23 64.76 64.09 62.94 62.77 63.60 63.02 65.12 65.40 66.17 66.48 66.35 66.79 66.18 64.38 62.78 63.18 62.75 61.79 62.53 63.06 62.74 62.43 62.71 63.56 62.29 59.88 62.75 65.11 65.80 66.92 68.42 68.00 66.20 68.02 69.30 70.39 69.09 64.88 69.09
60.86 61.84 62.81 63.95 64.00 64.21 64.00 64.30 65.72 65.83 66.20 65.98 66.15 66.33 66.31 66.37 66.20 64.18 63.94 60.51 61.66 61.97 62.76 62.80 62.28 61.40 62.63 63.30 61.28 61.58 57.90 61.20 64.42 65.92 66.33 66.15 66.24 68.41 67.93 69.98 69.20 68.84 69.05
60.55 61.62 63.09 63.79 63.98 64.33 64.78 64.98 65.27 65.65 65.30 64.64 65.69 65.96 66.22 65.27 65.41 63.68 63.19 62.81 63.06 63.45 63.15 62.65 62.03 62.17 60.81 62.31 63.35 61.82 56.82 55.68 60.62 65.12 65.60 65.78 66.46 66.98 68.11 67.63 68.57 68.04 68.52
60.65 62.88 63.36 63.73 64.02 64.26 65.21 64.64 65.13 64.16 62.84 64.73 65.10 65.46 65.59 64.06 65.12 63.28 64.52 63.56 63.95 63.66 63.15 62.52 62.62 62.49 63.19 60.65 61.58 64.68 64.91 63.47 59.48 58.71 63.60 64.67 65.55 64.21 66.05 67.36 67.54 66.80 66.73
61.62 62.04 62.93 63.80 63.99 64.67 64.96 65.59 64.50 63.54 64.22 65.17 64.83 63.83 64.12 65.61 64.86 63.63 64.80 64.07 64.17 63.64 63.67 63.10 62.76 62.91 63.23 63.96 63.61 63.65 64.09 63.47 63.83 61.58 58.00 60.04 62.99 64.85 64.74 64.55 64.87 65.46 65.37
61.87 61.97 62.76 63.23 63.76 64.60 64.49 65.03 64.38 63.35 62.85 63.40 63.05 63.53 64.03 64.51 64.40 64.74 64.11 64.63 64.55 64.16 63.70 63.13 63.51 63.77 63.98 64.87 64.98 64.60 63.44 61.65 61.58 62.47 59.01 59.18 59.56 61.62 64.06 65.04 65.03 64.55 64.56

GFSSE_sfc_wetblb_024.txt.gz
Wetbulb
67.37 71.87 74.33 73.77 73.20 72.55 71.20 70.05 69.55 69.25 68.82 68.48 67.96 67.38 66.76 66.09 65.65 65.21 64.75 64.55 64.48 64.23 64.50 64.72 64.68 64.39 64.70 65.46 66.04 66.85 67.13 68.21 69.62 70.26 72.53 73.26 73.99 74.40 74.89 75.41 76.01 75.71 75.79
68.88 71.87 74.21 73.96 73.51 72.80 72.26 71.47 71.05 70.72 70.23 68.82 68.36 67.75 67.22 66.87 66.31 66.09 65.82 65.53 65.43 65.53 65.80 65.84 66.06 65.89 65.68 65.53 65.94 66.24 66.83 67.48 68.61 69.57 70.31 73.15 74.00 74.36 74.79 75.04 75.66 75.55 75.52
68.58 71.67 73.77 73.99 73.76 73.20 72.70 71.93 71.52 71.25 70.88 69.80 68.72 68.30 68.01 67.50 67.19 66.92 67.08 66.94 66.89 66.87 67.03 67.32 67.35 67.51 67.24 66.81 66.26 66.62 67.28 67.18 68.10 69.01 69.79 73.44 74.65 74.46 74.86 74.90 75.58 75.45 75.49
69.23 71.48 72.28 74.02 73.86 73.31 72.86 72.29 71.80 71.43 71.23 70.07 69.24 68.93 68.59 68.42 68.15 68.04 67.98 68.26 68.44 68.30 68.42 68.36 68.54 68.54 68.33 68.04 67.62 67.10 66.88 67.64 67.89 68.42 68.28 71.23 74.05 74.60 74.56 74.88 75.29 75.18 75.06
69.75 70.55 72.54 74.21 73.77 73.51 73.04 72.64 72.28 71.95 71.61 70.30 69.71 69.51 69.15 68.89 68.65 68.76 68.73 68.97 69.08 68.95 68.72 68.88 68.91 68.94 68.77 69.04 68.36 68.30 67.59 67.16 67.43 68.57 67.45 68.76 73.07 74.58 74.01 75.02 74.81 74.69 74.79
69.74 70.54 72.65 74.24 73.94 73.69 73.26 73.12 72.87 72.55 71.75 71.05 70.06 69.49 69.12 68.86 69.88 70.46 69.67 70.14 70.12 69.90 69.64 69.47 69.53 69.70 69.23 69.37 69.71 69.20 68.75 68.14 67.27 67.05 67.57 69.36 70.50 73.92 73.04 73.89 74.44 74.36 73.92
70.05 70.60 72.73 74.07 74.02 73.89 73.84 73.54 73.25 73.02 72.55 72.06 70.68 69.95 70.01 70.67 71.20 71.11 70.74 70.40 70.38 69.92 69.75 69.86 69.81 70.35 69.75 69.92 69.81 69.76 69.39 68.80 68.66 67.76 67.43 69.28 68.93 71.47 71.88 73.22 74.13 73.72 73.57
69.85 71.15 73.12 74.03 74.01 73.82 73.69 73.47 73.29 73.14 72.55 72.33 71.78 71.73 71.63 71.66 71.91 71.02 70.57 70.12 69.79 68.92 69.08 69.48 69.53 69.33 69.13 69.35 68.90 69.29 69.27 69.09 69.01 68.72 68.46 68.53 70.14 69.40 71.22 72.85 73.39 73.39 73.20
70.63 70.70 72.58 74.07 74.20 74.06 73.74 73.44 73.31 72.94 72.79 72.69 72.35 72.18 72.20 72.21 71.49 70.55 69.90 69.07 67.82 67.51 67.65 67.99 68.80 68.95 68.73 68.62 68.49 69.10 68.91 69.14 69.00 69.14 68.91 68.82 70.66 69.45 71.05 72.13 72.97 73.00 73.35
70.13 70.71 71.34 73.58 73.50 73.34 73.50 73.91 73.51 73.40 73.15 72.95 72.90 72.73 72.48 71.85 71.00 69.47 68.67 67.60 67.17 66.87 66.46 66.84 67.50 68.05 68.79 68.52 68.52 68.23 68.62 68.62 68.96 68.04 69.28 69.03 69.66 68.95 70.22 71.93 72.85 72.85 72.92
68.03 70.23 70.98 71.51 72.92 73.34 72.73 73.15 73.67 73.14 73.02 73.08 72.45 72.15 72.13 70.78 69.91 69.64 69.31 66.57 66.51 66.24 66.27 66.08 65.98 66.41 67.09 67.77 67.84 67.70 68.23 68.28 68.41 67.52 69.01 70.26 68.47 68.95 69.48 71.08 72.35 72.40 72.68
67.07 68.31 70.46 71.73 72.45 72.98 71.58 72.61 73.57 72.45 72.55 72.28 71.66 71.58 71.24 70.14 69.64 68.45 68.10 66.50 66.23 65.87 65.53 65.77 65.84 66.50 67.41 67.98 67.32 67.90 67.83 68.09 67.62 67.70 68.64 68.86 68.45 69.06 69.34 69.93 71.49 71.88 72.45
66.80 68.21 69.55 71.80 72.67 72.65 71.75 71.95 72.43 72.26 71.68 71.67 72.10 71.53 70.67 68.92 69.09 68.77 68.49 67.74 67.86 66.98 66.74 66.21 66.73 66.98 66.88 66.95 66.26 66.68 66.73 67.27 66.92 67.01 68.92 67.79 67.90 68.97 69.35 69.64 70.81 71.49 72.20
65.91 67.64 69.79 70.81 72.00 73.01 71.89 71.37 71.77 70.97 70.65 69.77 69.70 70.65 69.61 68.33 68.42 68.45 67.71 67.12 67.33 67.04 66.43 66.34 66.17 66.27 66.63 66.53 66.83 67.49 65.97 67.26 66.74 67.30 68.59 66.64 67.34 68.33 69.03 69.34 70.33 71.12 71.88
66.17 67.31 69.42 71.14 72.10 72.72 72.47 71.56 71.44 70.10 68.92 68.85 68.19 69.00 69.18 68.11 68.10 68.22 67.89 67.10 66.15 65.97 65.72 65.76 65.95 66.16 65.95 66.39 66.67 66.72 65.96 67.25 67.32 67.41 67.85 66.51 67.02 67.74 68.43 69.12 70.19 71.28 71.76
67.42 67.65 69.51 70.60 72.08 72.34 72.41 72.40 70.58 69.46 68.39 68.21 67.34 68.31 69.55 68.79 68.41 68.16 67.73 66.28 66.39 67.06 66.58 65.79 65.60 65.40 65.52 65.75 66.39 66.88 66.98 66.64 67.25 68.30 68.23 66.46 66.78 67.44 67.79 68.62 70.18 71.48 71.74
67.78 68.72 68.96 70.24 71.66 72.28 71.68 71.00 69.60 68.29 68.19 66.95 67.41 69.51 69.22 69.47 69.04 68.87 67.70 66.81 67.21 67.99 67.68 66.88 65.62 65.80 65.20 65.60 66.15 66.83 66.93 67.56 67.22 67.27 67.27 65.30 66.63 67.50 67.62 67.94 70.14 71.17 71.59
68.17 68.15 68.67 68.32 70.32 71.54 71.13 69.74 68.24 67.88 67.28 67.22 68.31 68.75 69.56 69.53 69.12 68.41 66.88 66.71 67.31 67.33 66.55 65.56 64.34 64.24 64.29 64.39 66.02 66.16 66.54 67.19 66.59 66.92 65.19 65.04 66.38 67.63 68.09 68.70 70.28 71.09 71.33
67.99 68.09 67.24 68.47 69.52 70.12 69.65 68.87 68.75 68.72 67.45 67.93 68.34 68.57 69.16 69.29 69.01 67.85 67.77 66.77 67.60 66.44 66.06 65.96 65.09 64.55 63.47 64.34 64.03 65.26 65.76 66.11 65.62 64.59 64.75 66.28 68.56 68.74 68.10 70.48 69.96 70.39 70.88
67.05 67.19 67.40 67.82 69.13 69.45 68.40 68.28 67.29 66.96 67.29 67.98 68.07 68.41 69.03 69.18 68.55 68.16 67.84 67.38 64.81 63.61 65.44 64.98 64.75 65.02 64.22 64.69 64.09 63.99 65.27 65.47 65.40 64.49 65.52 67.44 68.78 69.26 69.64 70.80 71.65 70.93 70.21
65.51 65.97 66.70 67.14 68.45 67.56 66.64 65.59 65.43 64.55 65.88 66.92 68.07 68.93 68.98 68.88 67.58 67.38 67.36 63.47 64.03 63.51 62.83 64.63 65.01 63.27 64.32 65.22 63.32 62.96 64.44 65.62 64.94 64.75 66.64 68.37 68.67 69.34 70.51 70.92 71.52 70.48 69.51
64.91 65.97 66.57 67.03 67.83 67.51 66.74 66.88 66.18 65.72 66.69 67.56 68.56 68.80 68.69 68.48 67.29 66.83 66.28 65.46 63.65 61.52 63.59 64.06 64.15 63.37 63.55 65.53 62.76 62.44 59.45 61.52 64.40 66.35 66.87 67.81 67.96 68.68 69.43 70.67 69.37 67.11 64.98
64.66 65.56 66.01 67.14 67.61 67.92 68.24 67.31 67.14 67.72 67.39 66.28 66.90 67.27 67.78 68.04 67.55 66.53 65.96 63.99 64.21 64.14 64.25 65.13 64.65 62.82 62.70 65.05 65.52 62.76 59.06 57.05 60.39 65.32 66.59 67.03 67.84 68.62 69.40 70.07 69.79 68.40 68.97
64.72 65.77 66.72 67.24 67.68 67.78 67.89 66.76 66.71 64.82 63.77 66.84 66.95 68.41 67.40 67.26 66.68 66.58 65.81 65.30 65.63 65.80 65.23 65.57 64.93 64.42 64.64 63.36 65.02 64.74 64.68 63.17 58.17 59.86 65.62 66.75 68.04 68.11 69.06 69.97 69.78 68.83 69.68
64.91 65.68 66.63 67.48 67.32 67.37 67.65 67.56 66.42 65.63 66.39 66.91 66.75 66.12 67.25 67.16 66.04 65.57 66.51 66.01 65.69 66.69 66.39 65.62 64.09 63.59 66.15 64.81 63.45 64.86 64.70 63.06 64.47 62.63 60.29 62.35 65.14 66.10 67.76 68.53 68.54 68.38 68.72
65.27 65.86 66.49 66.49 66.59 67.45 67.48 67.85 66.98 66.22 65.63 65.44 65.24 64.93 65.98 66.75 66.49 66.23 65.93 65.99 66.68 66.50 65.46 65.09 65.16 64.86 65.65 65.80 65.40 64.55 64.72 61.56 61.64 63.39 62.85 61.50 61.31 62.60 64.20 65.99 65.83 66.24 66.20

GFSSE_sfc_wetblb_027.txt.gz
Wetbulb
69.54 73.29 73.91 73.75 73.02 72.21 71.24 70.05 69.67 69.28 68.90 68.21 67.59 67.10 66.55 65.93 65.52 65.41 65.37 65.23 64.71 64.45 64.64 64.79 64.89 64.57 64.82 65.48 66.10 66.87 67.37 68.12 69.63 70.65 71.98 73.69 74.00 74.30 74.95 75.83 75.96 75.19 75.87
69.88 73.40 73.92 73.68 73.35 72.87 72.05 71.04 70.91 70.57 70.02 68.84 68.55 67.83 67.02 66.37 65.84 65.56 65.35 65.42 65.46 65.54 65.61 65.74 66.12 66.42 66.21 65.75 66.25 66.56 67.29 67.60 68.26 69.36 70.54 71.71 74.06 74.18 74.81 75.08 75.77 75.17 75.29
69.52 73.55 73.15 73.79 73.61 73.23 72.73 72.16 71.85 71.45 70.75 69.64 68.97 68.53 67.72 67.29 66.78 66.51 66.11 66.27 66.46 66.59 66.70 67.02 67.51 67.62 67.94 67.56 67.06 67.12 67.49 68.01 68.31 68.56 69.42 71.05 74.05 74.38 74.56 74.74 75.35 75.02 75.34
69.76 73.90 71.53 73.87 73.72 73.44 73.02 72.37 72.08 71.71 71.08 70.29 69.35 68.94 68.38 67.98 67.61 67.43 67.61 67.77 68.12 68.15 68.13 68.02 68.42 68.77 68.95 68.68 68.64 67.99 67.31 67.66 68.13 68.48 67.09 66.53 70.65 75.78 74.81 74.84 74.81 74.61 75.14
69.71 73.76 72.73 73.90 73.67 73.74 73.42 72.63 72.38 72.06 71.71 70.44 69.93 69.57 69.36 69.01 68.93 68.73 68.68 68.79 69.19 69.42 69.20 69.07 69.12 69.23 69.12 69.41 69.32 68.97 68.57 67.88 67.70 67.44 66.01 65.56 67.82 74.27 75.03 74.34 74.43 74.45 74.79
69.02 71.68 74.46 73.67 73.95 73.87 73.54 72.90 72.66 72.41 71.98 71.20 70.39 70.24 69.86 69.53 69.62 69.44 69.11 69.31 69.87 70.20 70.14 69.92 69.84 69.63 69.68 69.67 70.33 69.53 69.47 69.02 68.25 67.41 66.11 66.89 68.01 72.56 72.95 73.99 73.92 74.42 74.45
69.09 70.25 74.01 74.00 74.17 74.15 73.84 73.17 73.03 72.71 72.43 72.08 70.91 70.41 70.02 70.52 70.59 70.44 70.02 70.50 70.86 70.70 70.44 70.15 70.14 70.19 69.92 69.94 69.78 69.62 69.67 69.80 69.37 68.31 67.12 67.89 68.62 71.65 72.01 72.68 73.43 73.52 73.92
69.10 70.68 72.11 74.36 74.15 73.97 73.70 73.28 73.18 73.00 72.63 72.41 72.16 71.60 71.45 71.46 71.41 70.75 70.91 70.95 70.38 70.05 69.26 68.98 69.10 69.84 69.57 69.20 69.26 69.40 69.03 69.33 69.62 69.09 68.68 67.83 71.38 70.74 70.48 71.62 72.78 72.93 73.23
69.71 70.52 71.27 75.29 74.50 74.17 73.87 73.33 73.23 73.24 72.97 72.80 72.53 71.99 72.16 71.86 72.09 71.59 71.27 70.49 69.69 68.56 67.80 67.77 67.97 68.24 69.06 68.81 68.87 68.89 68.98 69.16 68.86 68.94 68.51 68.56 71.93 70.20 69.25 71.01 72.76 72.90 73.10
70.16 69.90 70.87 73.25 75.03 73.97 72.94 73.82 73.69 73.64 73.41 72.97 72.72 72.58 72.57 71.89 72.09 71.57 70.88 69.68 68.69 67.47 67.30 66.76 66.69 67.29 68.07 68.77 68.83 68.82 68.67 69.15 68.48 68.09 68.15 69.46 71.10 69.94 68.40 70.13 72.48 72.38 72.87
67.89 70.04 71.06 70.46 72.88 73.61 72.63 73.08 73.92 73.18 73.00 72.99 72.41 72.28 72.46 70.41 69.87 71.38 70.59 69.27 67.95 67.38 66.74 66.58 66.68 66.46 66.54 67.54 68.19 67.97 68.06 67.48 67.33 67.60 67.96 71.62 70.25 69.71 68.66 68.80 71.31 72.01 72.43
66.38 68.41 69.74 71.44 72.47 72.92 71.61 73.71 73.94 72.39 72.10 71.68 71.51 71.76 72.10 71.72 70.66 69.25 69.65 67.39 67.51 67.43 67.00 66.49 66.20 66.37 66.56 66.23 66.80 68.38 67.41 66.95 66.92 68.03 67.88 70.37 69.07 68.24 67.68 68.73 70.31 71.25 71.91
66.35 67.82 69.33 74.51 75.28 73.49 71.91 71.91 73.13 72.78 71.83 72.40 73.10 73.96 73.48 70.63 69.61 69.04 69.13 68.74 68.23 68.43 67.32 67.39 67.08 66.76 66.72 65.93 66.42 67.12 66.96 67.13 66.44 67.18 68.62 70.61 69.25 68.64 67.95 69.11 69.79 70.96 71.29
64.82 67.85 68.76 71.87 74.83 75.48 73.45 71.38 72.11 72.49 72.78 71.74 71.64 74.33 72.28 69.45 69.38 69.15 68.44 68.30 69.10 67.90 68.12 67.44 66.48 68.17 66.93 66.71 66.94 65.93 66.90 67.08 66.85 66.37 69.24 68.81 68.04 67.68 68.11 68.97 69.66 70.50 70.92
64.87 66.79 68.96 72.67 75.00 75.21 75.55 72.47 72.29 72.73 71.44 71.78 71.01 71.31 70.34 68.76 69.99 69.13 69.29 68.33 68.91 68.00 67.49 66.58 66.74 66.71 66.35 65.80 66.28 65.89 65.57 67.04 65.72 66.07 67.79 68.37 67.63 67.31 67.88 69.00 69.31 70.00 71.18
67.60 67.58 69.66 71.98 75.57 74.24 74.34 76.03 74.26 74.56 72.03 70.35 69.39 69.34 70.84 69.48 70.65 68.86 69.08 68.05 67.54 67.71 67.59 67.00 65.32 65.65 65.93 65.33 65.79 66.13 66.61 67.52 66.69 67.08 67.58 66.16 68.07 67.49 67.54 68.60 69.10 69.74 71.09
66.98 70.99 71.72 73.66 75.44 75.31 74.77 74.83 73.89 72.02 70.24 69.37 68.61 70.46 69.47 70.72 70.34 70.04 68.30 68.06 68.15 69.81 68.07 68.16 67.40 66.75 65.07 65.73 65.41 66.32 66.45 67.04 66.85 67.08 68.79 66.70 67.31 68.06 68.02 68.31 68.76 69.67 71.32
69.61 70.74 70.71 69.44 72.18 74.41 74.60 74.12 72.63 70.60 69.56 68.26 68.30 68.72 70.14 70.50 70.34 69.64 68.14 67.87 69.72 69.43 68.89 66.86 66.18 65.66 64.56 64.62 65.05 65.52 65.99 67.68 67.01 67.17 67.10 67.91 66.34 67.20 68.50 68.65 68.60 70.07 71.32
70.19 70.24 70.25 71.99 71.07 73.00 74.55 73.10 72.51 72.84 69.09 67.98 68.47 68.72 69.81 70.07 69.69 69.15 68.06 68.86 69.56 68.40 68.51 66.46 65.98 66.19 64.53 64.03 65.44 66.11 66.39 66.42 66.43 66.17 66.76 66.21 66.97 67.79 69.01 69.14 69.62 70.72 71.55
68.85 70.19 71.33 70.88 72.58 74.14 72.86 72.26 69.44 68.45 68.21 68.09 68.25 68.49 69.71 69.60 69.53 69.61 68.83 69.04 68.71 67.21 63.94 64.41 65.19 65.93 65.68 66.29 64.30 64.14 65.49 65.84 66.25 66.46 65.11 65.26 67.08 67.39 68.02 69.69 70.44 69.96 70.67
68.01 69.25 69.69 69.40 73.25 72.10 69.79 67.75 67.12 66.33 67.48 67.17 67.93 69.37 69.20 69.32 68.65 69.60 68.59 68.14 67.13 64.75 64.89 64.95 63.11 61.41 65.13 65.42 64.43 64.22 65.18 65.71 66.44 65.23 65.66 65.76 67.13 67.94 68.22 68.35 70.47 71.16 70.67
67.65 68.22 68.67 69.34 71.22 70.93 69.35 69.51 68.50 68.01 67.01 67.19 68.10 69.30 69.39 69.07 69.63 68.59 68.61 67.74 66.95 64.73 64.92 64.47 64.76 63.35 64.17 65.07 61.68 62.56 58.88 62.68 64.65 64.56 65.79 66.55 67.72 67.69 67.39 69.44 70.54 70.25 68.74
66.77 67.67 68.21 69.19 69.70 70.88 71.33 69.99 68.55 68.36 68.89 66.94 66.61 67.34 68.48 68.29 68.58 68.22 67.84 67.08 66.24 66.46 64.13 65.91 65.64 64.14 62.93 64.70 64.89 63.24 59.29 57.10 60.30 63.41 65.01 65.98 68.00 67.31 67.60 70.64 69.33 67.78 67.20
66.87 67.91 68.57 68.96 69.28 69.34 70.38 70.04 70.30 66.11 64.42 66.31 67.75 67.10 68.06 67.93 67.40 67.02 66.89 66.44 65.94 66.02 67.12 66.28 66.95 65.41 65.16 62.86 65.22 65.88 64.68 64.07 59.33 58.09 65.48 67.16 68.64 68.51 68.73 69.41 69.78 69.21 67.42
67.13 67.18 68.29 68.67 68.47 69.14 69.11 69.76 67.07 66.71 65.53 66.35 66.42 67.44 68.26 68.36 67.19 66.76 66.50 66.30 66.33 68.43 65.99 66.32 65.55 65.59 66.29 65.27 65.51 65.41 66.53 63.41 63.60 60.26 60.35 62.49 66.96 68.34 69.61 70.21 69.50 70.20 67.68
66.80 67.39 67.84 67.99 68.13 68.26 68.14 68.52 68.23 67.45 66.20 65.84 66.01 66.11 67.98 68.37 67.55 67.17 65.98 66.60 66.88 66.98 66.14 65.48 65.77 65.46 66.18 66.43 66.00 65.53 63.96 61.12 61.18 61.50 62.59 62.97 63.03 63.85 66.77 68.51 68.65 68.90 68.10

GFSSE_sfc_wetblb_033.txt.gz
Wetbulb
68.94 71.44 74.59 73.81 73.30 72.80 71.95 70.63 70.57 70.02 69.37 68.62 68.02 67.75 67.35 67.30 66.65 66.19 65.92 65.82 65.82 65.58 65.23 65.18 65.14 65.08 64.84 64.52 64.85 65.19 66.10 66.59 67.67 69.34 70.72 71.71 72.63 73.83 74.10 74.57 75.58 74.21 75.66
69.57 71.51 74.16 73.71 73.10 72.72 72.14 71.72 71.44 70.90 70.50 69.75 68.63 67.83 67.48 67.19 66.79 66.55 66.20 65.82 65.74 65.81 65.70 65.50 65.72 65.91 66.05 65.85 65.32 65.39 65.73 66.57 67.21 67.48 68.56 69.50 70.47 73.85 73.85 73.77 75.34 74.73 75.69
68.89 70.51 71.92 73.49 73.20 72.93 72.63 72.09 71.58 71.21 70.94 70.35 69.89 68.78 67.77 67.67 67.14 66.92 66.74 66.47 66.39 66.08 66.19 66.16 66.27 66.62 66.98 67.16 66.95 66.60 66.37 66.31 67.19 67.46 67.67 64.75 65.89 70.75 74.45 73.81 73.93 74.91 75.14
68.60 69.75 70.16 73.39 73.16 72.96 72.54 72.08 71.66 71.39 71.14 70.88 69.99 68.72 68.14 67.91 67.43 67.19 66.95 66.98 67.19 67.16 67.11 67.35 67.57 67.46 67.65 67.97 68.20 68.04 67.91 67.75 67.16 66.92 64.27 64.56 63.79 69.20 74.96 74.17 73.76 74.02 74.61
68.06 68.85 69.37 73.42 73.07 72.94 72.57 72.15 71.78 71.51 71.41 70.83 69.83 69.30 68.78 68.29 68.23 68.79 67.89 67.89 68.11 68.57 68.68 69.17 68.95 68.90 68.83 69.14 69.42 69.20 68.89 68.59 68.52 67.79 64.19 62.09 60.49 66.03 72.97 74.14 74.04 73.72 73.77
68.87 68.34 71.39 73.44 73.15 73.07 72.72 72.38 71.98 72.08 71.64 71.13 70.57 70.01 69.36 69.33 69.11 69.27 69.03 68.92 68.97 69.27 69.57 70.11 70.24 70.15 69.83 69.94 70.91 70.81 70.11 69.33 69.31 66.71 65.27 64.79 65.18 69.88 74.37 73.98 73.55 73.49 73.57
68.88 68.39 71.39 73.42 73.49 73.59 73.34 72.95 72.55 72.38 72.01 71.81 71.70 70.97 70.75 70.86 70.82 70.30 69.41 69.26 69.58 70.02 70.61 70.65 70.00 69.68 69.65 69.63 69.76 70.50 70.35 69.44 67.47 66.59 66.29 65.82 64.85 72.85 74.27 73.49 73.13 73.21 72.70
69.39 68.64 70.81 72.97 73.61 73.44 73.37 73.00 72.70 72.25 72.08 72.11 71.96 71.88 71.76 71.74 71.51 71.22 70.37 69.93 70.40 70.76 70.91 69.77 69.59 68.88 68.75 68.89 69.33 69.84 69.74 69.29 67.40 65.45 66.23 66.18 68.53 73.57 73.55 73.19 72.97 72.50 72.65
69.76 69.16 70.30 70.86 72.16 73.89 73.44 72.99 72.59 72.27 72.13 71.78 71.64 71.83 71.86 71.81 71.54 71.54 71.51 71.24 70.87 71.44 70.55 69.97 68.87 67.95 67.91 68.08 68.72 69.28 69.38 69.45 66.14 65.45 66.28 64.86 70.15 72.90 72.42 72.37 72.80 72.55 72.25
68.21 70.40 69.83 70.04 70.40 70.85 71.38 73.56 72.76 72.39 72.20 72.00 71.88 71.95 72.05 71.93 71.83 72.07 71.49 71.89 71.61 71.15 70.87 69.61 68.33 68.08 67.57 67.41 68.26 68.99 69.01 69.28 66.26 65.79 65.29 64.33 70.08 72.12 72.07 72.24 72.35 72.53 72.30
65.08 70.24 70.22 69.77 69.92 69.82 70.13 71.83 72.74 73.14 72.59 72.44 71.99 72.20 71.27 68.97 69.37 70.05 71.13 71.52 71.88 71.86 71.10 69.65 68.64 68.28 67.72 67.46 66.95 68.02 69.14 65.30 65.50 65.32 64.99 67.45 70.45 71.72 71.16 70.92 71.98 72.23 72.15
58.24 68.94 70.16 69.82 69.65 69.77 70.51 70.01 70.46 70.45 70.19 70.42 69.94 69.56 69.28 68.05 66.41 68.23 69.56 71.93 72.30 72.23 71.12 70.09 69.33 68.38 67.53 63.35 62.95 66.35 64.96 65.03 64.43 63.65 63.73 69.09 70.76 71.12 70.64 70.34 71.13 71.88 71.90
59.37 63.69 70.04 69.95 69.97 69.81 69.64 69.35 69.98 69.93 69.71 69.99 69.05 67.75 68.70 67.78 66.86 67.76 65.49 68.32 68.54 70.33 66.63 67.76 66.66 65.45 63.55 62.48 61.67 60.76 64.31 64.93 64.74 64.15 65.15 69.12 70.68 71.07 70.39 70.01 70.40 71.12 71.43
58.53 59.26 67.23 70.37 70.44 69.86 69.75 68.64 69.72 69.23 69.23 68.93 68.96 67.07 67.61 67.47 67.26 66.32 64.04 64.72 64.92 65.28 64.03 63.30 64.10 64.43 62.92 63.57 64.05 63.62 64.27 65.08 63.60 63.33 64.21 69.31 70.14 70.75 70.17 69.80 69.60 70.42 71.22
57.66 59.41 62.38 66.68 70.36 70.03 68.45 68.34 69.33 69.15 68.96 68.42 68.04 67.83 67.53 67.58 66.58 64.49 63.00 63.31 64.11 63.81 64.47 63.65 63.63 64.61 62.67 62.67 63.22 64.11 63.98 63.76 64.00 64.56 63.97 69.93 70.33 69.80 69.93 69.72 69.43 69.52 70.57
59.24 60.65 61.31 65.99 68.45 69.31 68.55 68.06 69.54 69.75 69.28 68.33 68.11 67.99 68.79 68.34 65.76 64.74 64.39 64.52 63.66 63.44 62.26 63.07 62.44 62.17 61.31 61.83 61.63 62.86 63.68 63.93 64.34 64.43 64.42 64.83 69.36 69.06 69.35 69.26 69.37 69.17 69.74
61.72 61.25 61.25 62.34 66.71 68.38 68.13 68.28 69.52 69.84 69.34 68.47 68.15 68.83 69.37 66.89 64.89 64.98 63.93 64.01 64.06 63.78 63.29 63.07 62.91 62.83 62.32 61.76 61.67 61.87 61.84 63.41 63.34 63.38 64.30 66.34 65.93 68.65 69.26 69.70 69.74 69.59 69.51
61.02 60.70 61.73 70.51 68.36 68.51 67.46 68.24 69.39 69.23 67.99 67.42 66.38 68.13 67.78 65.92 65.22 64.88 64.17 63.63 63.93 63.67 62.91 62.37 62.10 61.50 61.79 61.55 60.29 60.10 61.60 62.81 62.06 63.93 63.75 65.30 64.06 64.56 68.03 68.67 69.53 70.21 70.15
60.60 60.33 62.57 66.47 68.26 68.58 68.87 68.16 68.59 68.32 66.24 65.49 64.65 65.23 67.09 66.42 66.84 64.88 64.45 63.77 64.13 63.66 63.03 62.57 61.72 61.23 60.30 60.59 60.75 60.13 60.45 61.33 61.67 64.00 62.68 61.93 63.26 64.15 64.61 67.95 68.47 69.49 70.26
62.58 64.38 64.47 67.70 68.83 69.10 69.31 68.79 68.14 66.08 64.84 64.77 64.53 64.55 65.44 66.15 66.67 65.28 64.36 63.71 64.00 62.59 61.61 61.59 61.00 60.75 59.87 59.71 61.38 61.02 60.67 61.17 61.83 61.85 61.97 63.33 62.45 62.75 63.31 64.13 65.87 66.80 69.80
62.17 63.80 65.84 68.14 68.46 69.91 68.90 67.72 65.87 64.15 63.67 64.48 65.51 64.76 66.27 65.90 66.28 65.30 65.30 63.76 63.46 62.36 61.62 61.67 60.61 59.63 58.59 59.45 58.86 58.95 58.33 59.87 60.21 60.88 61.50 61.53 61.59 61.63 61.22 64.92 65.08 66.14 67.01
62.53 65.22 65.95 67.70 68.11 67.73 68.07 66.28 65.10 63.44 62.98 62.85 63.53 64.07 65.11 65.55 64.54 64.19 63.38 63.13 61.85 62.11 61.59 61.38 60.93 57.89 57.33 58.41 56.65 57.63 54.75 56.25 58.21 60.47 60.80 61.43 60.16 61.55 62.84 64.79 64.59 65.45 65.64
63.24 63.81 64.71 66.08 67.53 67.34 67.38 65.83 64.30 63.40 62.57 62.05 62.09 63.05 64.24 64.76 64.74 63.75 63.61 62.43 62.65 62.34 59.93 59.51 59.65 58.67 56.43 57.87 57.91 54.77 51.90 51.75 54.29 57.95 59.68 60.95 62.61 61.46 61.71 64.02 64.72 64.84 64.74
63.21 64.23 65.60 67.08 67.01 66.14 65.32 64.31 62.77 60.44 60.21 60.77 61.06 62.33 64.10 64.41 65.64 64.63 63.92 62.77 61.62 61.18 60.21 59.95 61.09 59.61 58.79 57.15 57.89 59.20 57.59 56.67 52.09 51.46 56.53 58.74 60.13 60.48 60.04 61.82 63.34 63.61 63.50
63.62 64.13 66.05 66.25 65.15 65.97 63.86 63.90 62.22 60.48 61.28 61.83 62.36 62.68 63.07 63.30 63.95 64.51 63.41 62.34 61.66 61.00 60.39 60.22 59.79 59.31 58.73 57.45 56.79 56.29 56.71 56.21 57.69 53.19 51.33 54.72 57.33 58.78 60.67 61.63 61.55 62.00 63.76
64.40 65.14 65.36 64.63 64.43 64.52 63.85 63.48 61.13 60.61 61.14 60.40 61.13 60.48 60.67 61.79 62.39 63.24 63.62 62.11 61.67 61.01 60.73 60.31 60.07 59.65 59.87 59.78 60.06 59.30 57.71 55.23 54.29 53.96 52.16 53.59 54.46 56.95 59.20 61.14 62.21 61.57 61.53

GFSSE_sfc_wetblb_036.txt.gz
Wetbulb
67.61 71.19 75.10 73.97 73.22 72.58 71.67 70.71 70.70 70.24 69.72 69.00 68.27 67.90 67.58 67.10 66.64 66.40 65.99 65.70 65.70 65.63 65.65 65.15 65.03 64.82 64.61 64.20 64.17 64.45 64.79 64.86 65.93 67.33 68.90 70.29 71.46 73.16 73.63 74.76 74.95 73.88 75.50
68.56 71.58 74.67 73.90 73.29 72.40 72.15 71.51 71.45 71.06 70.57 70.04 68.37 67.84 67.52 67.12 66.70 66.38 66.22 66.08 65.81 65.64 65.47 65.55 65.56 65.49 65.62 65.51 65.05 64.86 64.89 65.27 65.55 65.79 66.49 67.60 68.14 70.58 73.28 74.05 74.09 73.30 75.60
68.22 71.04 72.76 73.68 73.34 72.79 72.40 72.01 71.71 71.03 70.77 70.39 69.63 68.23 67.49 67.34 67.10 66.91 66.48 66.27 66.24 66.24 66.13 65.97 66.05 66.24 66.43 66.56 66.70 66.48 65.95 65.89 66.00 66.08 66.45 63.63 64.56 67.61 71.07 73.13 73.85 73.72 74.97
68.72 70.17 70.52 73.55 73.23 73.18 72.51 72.09 71.69 71.05 70.88 70.70 69.91 68.38 67.84 67.65 67.44 67.22 67.01 66.99 66.83 66.94 66.88 67.15 67.39 67.69 67.42 67.39 67.81 67.86 67.69 67.48 67.33 67.49 63.65 63.32 62.98 66.49 68.50 73.60 73.51 73.84 73.55
67.98 69.42 69.74 73.48 73.10 73.23 72.66 72.21 71.62 71.30 71.18 70.92 70.05 69.38 68.73 68.49 68.76 68.39 67.37 67.48 67.81 68.03 68.08 68.71 69.06 69.03 68.90 68.84 68.77 68.92 68.71 68.61 68.32 67.93 64.65 62.78 60.92 65.10 69.68 72.97 73.74 73.80 74.02
67.32 68.51 71.33 73.23 73.13 73.08 72.96 72.34 71.92 71.60 71.35 71.15 70.74 70.48 69.87 69.06 69.32 69.01 68.21 68.53 68.57 69.00 69.36 69.63 70.04 70.06 69.90 69.72 70.53 70.09 69.75 69.23 69.14 66.37 65.56 65.41 65.20 67.41 71.76 74.79 73.89 73.86 73.80
66.51 66.93 70.42 73.15 73.20 73.33 73.15 72.59 72.02 71.65 71.47 71.57 71.59 70.94 70.69 70.50 70.14 69.07 69.04 69.13 69.16 69.33 69.70 70.32 70.68 69.89 69.69 69.82 69.97 70.27 69.84 69.69 67.42 65.66 65.84 65.57 65.22 69.51 73.10 74.21 73.62 73.87 73.68
66.45 65.65 68.65 73.01 73.11 72.88 72.76 72.31 72.07 71.74 71.55 71.82 71.84 71.77 71.35 71.13 71.13 70.14 69.93 69.42 69.57 70.15 70.77 70.84 70.21 69.89 69.38 69.00 69.31 69.36 69.71 69.61 67.91 65.29 64.93 64.54 66.88 70.81 74.11 73.95 73.60 73.68 73.38
67.42 65.84 67.85 69.78 71.84 73.25 72.54 72.39 72.06 71.84 71.57 71.64 71.64 71.52 71.67 71.64 71.59 71.47 71.08 70.21 69.96 70.61 70.91 70.96 70.14 69.63 68.75 68.24 68.12 68.63 69.29 69.67 66.19 64.97 65.31 64.46 67.66 70.84 73.23 73.45 73.18 73.08 73.18
67.63 66.60 67.54 68.23 69.54 70.14 70.34 73.03 72.55 72.13 71.98 71.74 71.83 71.71 71.76 71.83 71.86 71.64 71.09 71.27 70.66 71.08 71.40 70.79 70.22 69.58 68.78 68.22 67.83 68.15 69.05 69.36 66.14 65.11 65.18 64.65 68.10 69.16 71.80 72.09 72.53 72.78 72.61
66.50 66.48 68.14 68.15 67.57 68.88 69.14 70.78 72.48 72.68 72.35 71.96 71.64 71.76 70.84 69.17 68.91 69.41 70.54 70.83 71.13 71.62 71.76 71.10 70.76 69.83 68.73 67.95 67.71 67.35 68.15 65.45 64.97 64.88 64.86 67.65 68.63 69.18 72.18 72.57 72.16 71.89 72.14
64.37 66.85 67.81 67.98 67.71 67.42 68.70 68.68 70.06 69.70 69.32 69.43 68.80 68.48 68.84 67.76 66.79 69.14 70.02 71.29 71.25 71.93 72.27 71.70 71.00 69.44 68.58 63.91 63.53 66.15 63.40 64.43 64.65 64.59 64.21 68.19 68.46 69.38 71.35 71.75 71.74 71.42 72.19
61.47 67.14 68.34 68.12 68.21 67.76 67.50 67.90 69.57 68.89 68.35 68.47 68.23 67.85 68.27 67.62 67.06 67.24 65.79 66.79 68.45 71.30 68.95 69.60 67.85 66.60 64.39 62.96 62.07 60.95 61.81 63.64 64.21 64.48 65.38 67.78 68.65 69.20 71.04 70.88 71.27 71.62 71.79
57.39 64.49 68.20 68.24 67.97 67.88 67.66 67.64 68.09 68.03 68.06 68.17 68.24 67.89 67.60 66.69 65.32 64.49 65.35 64.64 65.50 66.22 65.68 64.43 64.03 63.74 63.49 63.07 61.98 61.22 61.00 62.88 64.06 63.58 63.16 67.88 69.34 70.04 70.83 70.49 70.20 70.39 70.78
56.51 57.47 67.31 68.28 67.93 68.16 67.39 67.76 67.77 67.68 67.64 67.93 68.04 67.51 67.35 66.47 65.28 65.02 65.17 63.43 64.06 63.69 63.58 62.55 62.35 63.02 63.00 63.18 62.72 62.69 63.05 64.31 64.40 62.90 63.60 67.75 69.92 70.25 70.87 69.86 69.84 70.15 70.47
57.69 57.49 61.45 67.65 68.24 68.29 67.85 67.29 67.93 68.00 67.77 67.35 67.38 67.34 66.98 66.61 66.10 66.01 63.54 61.66 62.84 63.05 63.27 63.91 64.02 62.56 62.36 62.46 61.52 61.20 61.87 61.82 62.55 63.82 63.49 63.24 69.00 69.50 69.68 69.50 69.36 69.63 69.97
57.58 58.24 58.73 65.03 67.96 68.17 67.94 67.05 67.79 68.16 68.16 67.26 66.97 66.90 66.78 66.95 66.59 65.43 63.66 63.21 62.71 62.71 62.04 63.75 62.50 61.45 61.01 61.14 60.57 61.22 61.11 61.22 61.85 63.28 63.12 63.21 64.23 68.95 69.34 69.87 69.35 69.35 69.76
57.19 59.16 58.77 63.29 65.68 67.51 67.54 66.02 68.12 68.48 68.06 67.38 67.13 66.99 67.42 67.33 66.68 64.17 63.13 62.95 63.20 62.62 62.08 61.40 60.91 60.59 60.50 60.50 59.89 59.90 60.19 60.85 61.41 61.35 62.37 63.85 63.84 64.63 67.80 69.21 69.24 69.31 69.39
58.03 58.80 57.60 63.09 64.03 65.59 64.93 66.93 67.78 67.73 67.73 66.10 66.55 67.64 67.77 67.52 65.47 63.95 63.12 62.94 62.92 62.30 61.40 61.05 60.61 60.21 59.16 59.04 59.78 59.95 59.60 59.80 60.99 62.44 62.57 62.77 63.00 63.83 63.07 66.62 68.59 69.33 69.92
57.24 58.07 58.79 64.96 65.03 65.88 66.07 66.34 66.36 64.99 63.88 64.12 65.41 66.36 66.20 66.15 65.79 63.71 63.41 62.85 62.85 61.48 60.94 60.64 60.10 59.70 59.45 58.95 60.60 60.97 59.19 60.09 60.16 60.92 61.36 62.22 61.44 63.09 62.83 62.98 65.08 65.36 69.62
60.83 61.85 62.32 65.17 65.76 67.64 66.50 65.79 63.87 62.40 61.95 62.15 63.44 65.48 65.37 64.77 64.83 63.35 63.09 62.50 62.34 61.68 60.54 60.32 60.18 60.12 59.60 59.06 57.17 56.97 58.47 60.53 60.15 60.15 60.57 60.79 61.26 61.81 60.85 62.65 63.45 63.84 66.28
60.80 61.58 64.17 65.61 66.95 66.97 66.35 64.97 63.76 62.22 61.53 62.22 63.16 64.52 65.48 65.02 64.48 63.96 63.02 62.22 62.06 60.88 60.59 60.11 59.32 57.65 57.73 57.55 55.26 56.45 54.41 56.74 57.97 58.76 59.65 60.06 60.08 60.26 60.64 63.14 63.61 63.97 63.89
61.19 63.03 64.81 66.07 66.16 66.23 65.79 64.56 62.20 61.77 61.59 60.44 60.40 61.05 63.21 64.43 64.02 63.55 62.71 62.07 61.31 60.96 59.54 58.92 58.63 57.25 55.16 55.67 56.23 53.32 50.52 52.33 55.39 56.77 58.02 59.20 59.63 59.11 59.99 62.62 63.12 63.83 63.47
61.35 63.20 65.44 66.25 66.30 66.19 64.92 63.38 62.07 59.78 59.10 59.64 60.28 60.93 62.38 63.53 63.32 64.04 62.73 62.16 61.22 60.44 59.34 58.67 59.48 57.91 56.79 55.10 56.75 58.00 55.57 54.93 51.24 50.34 55.81 57.66 58.92 59.11 59.22 60.89 62.09 63.12 63.47
62.24 63.28 65.10 65.20 65.02 63.96 63.71 63.51 60.96 59.06 59.41 59.64 60.85 61.22 61.47 62.10 63.15 63.53 62.69 61.67 60.40 59.48 59.19 59.06 59.01 58.21 57.59 56.21 55.30 55.10 55.32 55.03 55.55 52.47 50.68 54.41 57.41 57.73 59.05 60.50 61.41 63.44 63.80
63.56 64.95 64.71 63.76 63.08 62.87 62.57 61.46 60.16 60.58 59.25 59.83 59.99 60.18 60.11 60.47 61.40 62.42 62.60 61.10 60.38 59.53 59.42 59.28 58.88 58.32 57.79 57.65 57.31 57.25 55.79 53.18 52.44 53.38 50.72 52.22 53.34 56.11 58.46 60.89 61.28 61.96 61.21